GFSFLT1_sfc_wetblb_078.txt.gz
Wetbulb
71.46 70.29 69.68 69.57 69.51 69.99 70.07 69.36 69.48 70.09 71.78 70.42 69.64 68.66 67.05 64.99 62.02 61.94 64.34 62.65 67.14 66.96 66.65 66.50 66.58 66.90 67.38 67.49 67.44 66.96 67.26 69.01 69.35
69.86 69.50 69.37 69.46 69.34 69.62 69.43 68.96 68.96 68.79 69.67 70.07 69.12 67.14 65.29 60.90 60.73 61.64 62.94 64.41 67.65 67.14 66.48 66.25 66.19 66.23 66.36 66.44 66.58 66.97 66.82 66.23 66.46
69.17 69.04 69.26 69.14 69.17 69.09 68.85 68.56 68.30 68.26 67.91 67.77 67.62 66.23 64.80 61.82 60.70 61.28 62.68 68.35 68.40 67.55 66.51 65.79 65.82 65.91 65.82 65.55 65.71 65.76 65.70 65.90 65.65
69.04 69.02 69.19 69.20 68.89 68.69 68.73 68.64 68.32 67.75 67.18 66.45 65.37 64.30 64.29 59.98 60.77 62.40 62.34 67.50 68.02 67.65 66.51 65.79 65.40 65.41 65.30 65.11 65.00 64.98 65.18 65.26 65.15
69.14 68.95 69.40 69.21 68.89 68.41 67.84 67.68 67.60 66.94 66.23 65.14 64.40 63.32 62.26 59.16 60.33 61.06 61.66 67.22 67.11 67.17 66.24 65.61 64.96 64.73 64.67 64.40 64.42 64.28 64.43 64.52 64.63
66.69 66.74 68.16 69.00 68.51 67.88 67.36 66.81 66.26 65.28 63.74 64.19 63.94 60.49 55.32 53.60 58.14 56.63 61.49 67.19 66.86 67.12 66.32 64.97 64.50 63.68 63.74 63.69 63.28 62.93 62.88 63.24 63.58
65.51 65.11 66.85 68.17 68.01 67.75 66.66 66.20 66.05 62.11 57.08 56.94 58.93 55.40 54.45 53.12 53.26 54.49 60.73 64.54 65.02 65.92 67.56 65.81 64.20 63.25 62.63 62.82 62.15 61.74 61.68 61.71 62.15
62.79 62.66 63.94 63.25 64.36 62.34 63.11 61.42 60.28 57.01 56.34 55.54 55.44 55.40 53.81 51.81 52.07 54.83 61.36 64.30 64.98 64.95 65.66 67.57 65.73 64.17 63.11 62.37 61.93 60.78 60.61 60.65 61.06
61.53 61.36 61.45 61.17 61.45 59.69 59.10 59.02 58.24 57.79 57.42 56.33 54.75 54.49 52.88 52.46 52.58 53.70 59.40 63.32 65.02 65.11 65.33 67.17 68.09 65.90 64.74 63.80 62.85 61.38 60.48 60.47 60.44
61.69 61.43 61.02 60.40 60.04 59.81 58.11 58.57 58.77 58.47 58.87 59.01 57.59 56.87 56.23 54.53 54.55 54.30 58.62 60.71 64.50 65.16 65.45 67.20 68.34 67.75 67.15 66.02 64.78 63.63 62.46 61.65 61.10
61.66 61.21 60.43 59.72 59.68 60.13 59.22 59.36 59.54 59.24 58.53 58.39 58.87 58.40 58.08 57.65 57.40 56.98 57.18 61.07 62.75 65.10 65.34 65.97 67.16 68.34 68.02 67.64 67.16 65.94 65.09 64.10 62.98
61.92 61.31 60.18 59.96 59.51 59.77 59.47 58.40 57.77 58.20 58.55 58.79 60.04 60.14 59.99 60.12 60.22 59.79 58.93 59.07 60.88 62.96 64.86 65.62 66.40 67.27 67.49 67.48 66.98 66.65 66.17 65.77 65.14
60.57 60.15 58.77 58.25 59.30 58.77 58.36 58.21 56.47 57.29 58.42 58.66 59.61 60.11 60.50 60.84 60.73 61.53 61.31 60.11 59.92 61.39 63.77 65.21 66.18 67.28 67.28 67.15 66.90 66.46 66.53 65.79 65.92
60.27 60.22 60.33 58.88 57.45 56.54 56.55 56.49 57.65 57.85 58.50 59.36 60.23 60.71 61.27 61.46 61.90 60.74 60.78 60.89 60.80 60.55 61.47 62.40 63.27 65.08 66.88 66.15 65.87 65.46 65.45 64.80 64.94
61.16 61.57 61.15 60.48 59.08 58.57 58.13 57.58 58.84 59.67 60.61 61.58 61.52 61.80 60.75 60.36 59.87 59.96 60.60 60.03 60.45 60.72 60.55 59.98 60.03 62.11 65.12 64.35 64.48 64.42 64.50 64.56 64.23
62.93 62.25 61.44 60.77 60.63 60.76 60.43 60.12 60.48 61.65 62.39 61.57 59.70 57.46 58.16 58.43 58.85 57.95 57.93 58.43 59.32 59.01 58.75 58.01 57.57 59.49 62.71 62.87 62.97 63.74 62.91 62.52 62.12
63.90 63.18 62.44 61.74 61.32 61.13 61.50 62.04 61.78 61.98 62.23 60.44 56.46 53.25 55.07 55.36 55.75 55.31 55.60 54.93 55.12 56.34 56.31 56.27 55.71 55.72 56.35 58.29 60.28 60.72 60.80 61.16 61.15
64.50 63.73 62.80 62.27 62.79 62.60 62.41 62.60 62.29 61.11 60.51 60.14 57.14 52.34 50.06 51.69 55.48 54.49 54.53 53.76 53.05 52.84 53.13 54.22 54.40 53.54 53.03 53.92 56.62 59.57 60.07 60.45 60.54
63.61 63.51 63.10 63.10 63.90 63.43 62.59 62.09 62.07 61.38 59.50 57.00 57.28 57.70 57.47 54.06 50.58 53.27 53.79 53.82 52.09 50.90 51.04 51.20 51.21 51.10 52.21 55.08 56.29 58.01 59.40 59.42 59.56
61.40 62.06 61.99 61.83 61.33 60.51 60.00 59.19 58.51 57.91 57.42 56.02 53.72 51.88 50.94 53.21 53.05 48.20 48.75 51.16 51.39 50.98 49.99 49.55 48.17 49.64 50.74 51.18 55.01 57.16 58.18 58.38 58.31

GFSFLT1_sfc_wetblb_081.txt.gz
Wetbulb
70.91 70.28 70.79 70.96 70.95 70.58 70.09 70.30 71.48 71.86 71.42 70.06 69.14 67.40 66.99 66.11 66.89 67.38 67.35 67.32 67.57 67.55 67.24 67.00 66.88 67.07 67.32 67.41 67.42 67.47 67.47 67.38 67.85
70.66 69.93 69.72 69.91 70.56 70.26 69.72 69.77 69.82 70.77 70.92 69.77 67.96 66.55 65.08 66.17 67.06 67.74 68.23 68.16 68.08 67.47 66.95 66.73 66.64 66.61 66.34 66.24 66.42 66.58 66.51 66.56 66.08
69.75 69.63 69.54 69.69 70.24 69.93 69.40 69.12 68.91 68.73 69.51 69.06 67.19 65.96 64.82 64.87 66.31 67.50 68.52 69.11 68.48 67.97 66.96 66.27 66.32 66.32 66.03 65.88 65.95 65.92 65.85 65.82 65.54
69.41 69.45 69.37 69.46 69.60 69.39 69.07 68.65 68.29 67.94 67.29 66.37 65.39 65.70 64.02 64.81 65.72 65.77 67.96 67.63 68.26 67.55 66.84 66.12 65.84 65.78 65.48 65.29 65.13 64.97 65.34 65.47 65.34
69.49 69.27 69.66 69.25 68.94 68.79 68.83 68.62 67.96 67.18 66.24 65.01 64.08 64.12 63.35 64.86 65.09 66.05 66.90 67.34 67.30 67.24 66.23 65.80 65.18 65.08 64.89 64.72 64.51 64.21 64.44 64.48 64.60
67.81 67.32 68.32 69.30 68.97 68.28 67.82 67.28 66.25 65.02 64.21 64.58 63.37 61.07 62.07 61.86 64.34 63.48 61.44 66.14 66.75 67.23 66.37 65.08 64.59 63.97 64.11 63.76 63.47 63.19 63.08 63.19 63.34
67.75 66.62 67.14 68.47 68.25 67.91 67.29 66.65 65.12 62.59 62.76 62.96 60.91 62.58 61.74 60.95 61.02 61.51 60.46 63.51 65.07 65.42 67.51 66.24 64.61 63.59 63.04 63.13 62.37 61.93 61.75 61.98 62.17
67.76 67.91 67.78 67.86 65.61 66.61 66.44 65.90 64.55 62.55 62.67 62.17 62.53 62.13 61.07 61.20 60.20 60.31 60.28 63.42 65.13 65.04 65.51 68.02 66.59 64.78 63.52 62.83 62.35 61.21 60.91 60.86 61.06
66.12 66.14 66.55 66.33 66.49 64.93 65.02 64.66 63.82 62.90 62.40 62.77 62.41 61.41 61.33 61.21 60.52 60.55 59.30 61.54 65.10 65.63 65.67 66.82 68.37 66.85 65.33 64.46 63.46 62.10 61.01 60.89 60.70
65.00 64.85 65.12 65.06 65.13 64.62 63.54 63.48 63.15 63.11 63.55 64.14 63.66 63.32 63.24 62.85 62.41 62.78 59.22 60.59 63.06 65.41 65.76 65.93 68.08 68.24 67.51 66.75 65.56 64.62 63.68 62.46 61.86
65.13 65.35 65.07 64.79 64.62 64.40 63.56 63.01 64.06 64.50 64.47 63.65 63.50 64.06 64.15 64.08 63.67 64.22 64.02 61.16 62.65 64.41 65.79 66.15 66.75 67.66 68.34 67.84 67.57 66.88 65.94 65.21 64.11
65.55 65.44 65.19 64.81 64.17 63.54 63.69 63.35 63.32 63.16 63.25 62.83 63.70 64.79 65.13 64.81 65.00 65.61 65.26 64.65 61.41 62.64 65.19 66.29 66.61 66.97 67.73 68.00 66.91 66.70 66.78 66.55 66.12
65.40 65.00 65.12 64.71 63.54 63.27 63.65 63.62 62.43 61.52 61.93 63.36 64.26 64.30 64.94 65.46 65.50 65.59 65.34 65.43 64.91 63.93 63.60 65.11 66.42 67.25 67.47 67.84 67.14 65.56 66.20 66.47 65.89
64.80 64.47 64.69 63.52 62.29 62.51 62.51 61.80 61.77 61.12 61.92 62.72 63.85 64.74 64.84 65.22 64.94 65.57 65.24 64.97 65.27 65.84 63.85 62.58 63.47 64.93 65.80 66.58 66.83 65.07 64.81 64.92 64.81
63.86 63.50 63.77 63.24 61.88 61.38 60.53 60.29 60.82 62.17 63.21 62.63 63.58 64.94 65.12 65.15 65.14 64.72 64.11 64.46 64.35 64.84 65.14 65.38 64.76 61.60 63.51 65.55 64.58 64.22 64.73 64.39 64.06
63.48 63.38 62.86 63.19 62.60 61.61 61.27 61.00 61.20 62.14 63.31 63.04 63.67 63.16 63.45 63.45 63.33 63.27 62.64 62.31 62.41 63.08 63.61 63.99 64.12 64.08 63.17 63.68 63.39 64.28 63.76 62.93 62.16
64.91 64.17 62.78 63.23 63.58 63.14 62.89 63.08 63.19 63.01 63.67 62.83 59.98 58.79 60.32 61.28 61.58 61.61 60.73 60.51 60.69 61.16 60.66 61.87 61.87 62.69 62.47 61.15 62.14 61.96 61.48 61.66 61.70
65.00 64.85 64.86 64.04 64.04 63.41 64.14 64.31 63.62 62.28 61.93 62.46 60.93 56.36 55.67 57.47 60.78 60.08 60.09 59.59 59.44 59.00 58.74 58.66 58.79 58.46 56.98 56.59 58.30 60.24 60.69 60.70 60.93
64.38 64.39 64.20 63.99 63.44 63.46 63.49 64.42 63.98 63.51 62.51 61.55 61.48 62.01 61.05 56.89 55.19 57.91 58.41 58.43 57.51 57.02 57.02 57.13 55.69 54.89 55.96 56.25 56.87 58.61 60.04 59.76 59.64
63.56 63.85 63.48 62.67 61.95 61.43 61.28 62.36 61.09 61.59 61.07 60.83 59.50 59.00 58.37 57.58 54.82 51.58 54.15 56.73 57.15 56.70 55.54 55.72 54.54 54.20 55.41 56.61 56.70 57.72 59.14 58.82 58.63

GFSFLT1_sfc_wetblb_084.txt.gz
Wetbulb
71.14 71.87 71.89 71.76 71.56 70.21 70.78 71.51 71.81 72.12 70.40 69.31 67.57 67.62 66.55 67.43 67.95 67.90 67.97 68.03 67.66 67.72 67.19 66.94 66.95 67.07 67.21 67.33 67.35 67.31 67.18 67.27 67.14
70.66 70.53 70.83 71.02 70.90 70.36 70.69 71.64 71.10 70.62 69.98 68.40 67.01 66.67 65.16 67.10 68.00 68.56 68.82 68.80 68.01 67.44 67.16 66.93 66.88 66.58 66.53 66.42 66.48 66.50 66.63 66.35 66.10
69.61 69.69 70.33 70.73 70.15 70.03 69.97 69.83 70.43 70.51 69.60 67.87 66.58 65.47 66.06 65.90 67.18 68.18 68.56 68.61 68.12 67.49 66.74 66.54 66.46 66.29 66.10 65.93 65.85 65.90 65.72 65.72 65.79
69.03 69.26 69.87 70.29 69.90 69.57 69.24 68.96 68.58 68.43 68.36 67.07 66.38 65.45 63.85 65.98 66.05 66.07 67.99 68.20 67.90 67.15 66.57 66.10 65.93 65.73 65.54 65.35 65.14 65.01 65.25 65.29 65.19
69.56 68.19 68.91 70.19 69.93 69.40 68.99 68.54 68.05 67.32 66.21 64.98 64.87 65.20 64.51 65.29 65.36 66.02 66.57 67.34 67.21 66.90 66.11 65.70 65.35 65.19 64.98 64.69 64.30 64.13 64.28 64.47 64.58
68.37 67.88 67.93 69.39 69.16 68.78 68.58 68.12 67.00 65.91 65.34 64.68 62.86 62.05 64.90 64.97 65.53 65.24 63.01 65.48 67.02 67.47 66.27 65.20 64.74 64.31 64.23 63.68 63.40 63.12 63.10 63.14 63.08
67.77 67.15 67.71 69.07 68.88 68.51 67.66 66.85 65.31 63.69 65.02 64.46 62.38 64.98 64.80 64.21 64.27 64.34 60.67 63.11 65.65 65.66 67.58 66.38 64.92 63.94 63.49 63.19 62.43 61.91 61.80 61.95 61.81
67.75 68.26 68.26 68.06 66.07 66.90 66.82 66.16 65.15 64.46 64.34 64.49 64.32 64.66 63.87 64.08 63.94 63.22 60.67 63.34 65.09 65.50 66.22 68.06 66.93 65.38 64.22 63.64 62.66 61.48 61.19 61.06 60.84
67.25 67.15 67.24 67.03 66.45 66.11 65.97 65.30 64.71 64.24 64.42 64.30 63.73 63.33 63.76 64.87 65.18 65.00 60.74 61.69 64.49 65.85 66.06 66.47 68.61 67.79 66.17 65.31 64.35 62.97 61.74 61.51 61.22
66.54 66.03 66.21 65.79 65.97 65.24 64.65 64.56 64.09 63.96 64.69 65.77 65.69 65.55 66.07 66.23 66.40 66.77 60.47 60.83 62.86 65.11 66.30 66.65 67.29 68.85 67.84 67.20 66.44 65.39 64.61 63.63 63.13
65.27 64.50 65.04 65.66 65.94 65.39 64.39 63.82 64.09 64.72 66.07 66.28 66.50 66.60 66.81 67.10 67.11 67.66 67.49 62.05 62.77 64.51 66.14 66.79 67.01 67.61 68.65 68.43 68.03 67.23 66.43 65.91 65.08
66.62 66.35 67.06 67.04 66.84 65.49 64.79 63.86 65.97 66.24 66.14 65.80 66.21 66.89 67.41 67.31 67.41 67.70 67.91 67.30 61.78 63.10 65.60 66.66 67.17 67.27 67.79 68.44 67.72 67.61 67.24 66.99 66.72
67.50 67.76 67.66 67.76 66.64 65.95 65.51 65.15 65.17 64.94 64.79 64.84 66.03 66.42 66.97 67.23 67.16 67.37 67.41 67.24 67.24 65.46 64.41 65.49 66.53 67.21 67.55 68.40 67.68 66.60 66.72 66.17 66.23
67.58 67.07 67.28 67.84 66.20 65.53 65.25 65.27 64.96 63.92 63.88 64.25 65.77 66.65 66.68 66.71 66.49 66.38 66.77 67.10 66.98 67.09 65.24 63.43 63.38 64.72 65.95 66.89 67.20 65.82 65.74 65.68 65.10
67.87 66.44 66.84 67.02 65.87 64.83 64.99 64.12 64.55 64.05 64.38 64.53 64.75 66.21 66.47 66.51 66.46 66.19 66.01 66.10 66.10 65.89 65.92 66.59 66.00 62.33 63.49 65.41 66.35 65.03 64.89 64.90 64.36
66.95 66.08 66.56 66.43 65.57 65.48 65.15 64.43 63.48 63.53 65.55 64.91 63.44 64.55 65.64 65.38 65.23 65.40 64.79 64.50 64.28 64.88 65.46 66.19 66.36 65.87 63.04 64.54 64.59 64.61 65.31 63.70 62.58
66.68 66.28 66.24 66.16 64.80 66.35 65.29 64.26 63.93 64.72 65.74 62.82 63.43 59.14 61.57 63.47 63.37 64.36 63.68 63.38 63.82 64.02 63.30 63.86 64.17 65.34 66.10 63.64 63.88 64.11 63.19 62.71 62.19
66.92 66.84 65.93 65.33 64.91 66.04 65.92 65.67 65.14 64.28 64.47 64.57 62.44 58.44 56.59 60.12 62.46 62.43 62.73 62.05 62.68 62.82 62.34 62.15 62.25 62.79 62.34 60.72 59.90 60.51 61.48 61.34 61.67
65.87 65.46 64.92 64.24 63.98 63.38 63.62 64.03 64.14 64.70 62.77 63.50 64.04 64.42 62.50 57.60 55.62 59.93 60.52 61.09 59.29 60.55 61.74 61.16 60.21 60.08 60.62 57.23 57.27 58.67 60.31 60.23 60.32
64.30 64.07 63.81 63.70 63.84 62.99 61.99 62.07 61.39 61.40 60.44 59.78 60.51 62.71 62.44 61.35 58.59 52.50 54.39 57.78 58.88 59.52 59.21 59.49 59.73 58.70 59.19 60.03 57.76 58.20 58.96 59.40 59.33

GFSFLT1_sfc_wetblb_087.txt.gz
Wetbulb
72.15 72.39 72.21 71.70 71.01 70.71 70.71 71.02 71.11 70.76 69.36 67.76 67.79 67.01 65.95 67.73 67.44 67.29 67.99 67.13 67.87 67.76 67.48 67.27 67.21 66.92 66.95 67.19 67.12 67.13 67.22 67.05 67.16
71.42 71.93 71.63 71.26 70.91 70.80 71.64 71.81 71.27 70.11 68.63 67.40 67.06 66.03 65.72 67.38 67.79 67.99 67.99 67.77 67.96 67.69 67.48 67.17 66.92 66.86 66.69 66.50 66.32 66.45 66.47 66.55 66.43
71.08 71.48 71.30 71.06 70.56 70.78 71.57 70.99 70.69 69.96 68.33 67.06 66.10 65.23 66.10 66.12 67.29 67.98 67.72 68.43 68.05 67.59 67.01 66.84 66.70 66.52 66.24 65.88 66.00 66.10 66.21 66.08 65.93
69.64 70.74 71.39 70.93 69.89 70.20 69.92 70.23 70.45 69.88 67.91 66.99 66.08 64.89 65.26 65.50 65.78 66.81 67.40 68.66 67.81 67.36 66.78 66.38 66.09 65.89 65.68 65.42 65.29 65.17 65.33 65.37 65.11
69.91 69.39 70.65 70.76 69.92 69.78 69.35 68.75 68.18 67.77 66.61 65.68 66.01 65.60 65.16 64.94 65.19 65.52 66.65 67.71 67.47 66.90 66.38 65.84 65.54 65.36 64.95 64.65 64.38 64.19 64.28 64.48 64.50
67.52 67.88 68.97 69.98 70.12 69.49 68.86 68.38 67.73 67.01 65.87 65.19 64.63 64.57 64.55 64.54 64.38 64.60 66.32 67.25 67.54 67.30 66.26 65.49 64.90 64.59 64.25 63.79 63.52 63.30 63.22 63.12 62.89
67.36 66.80 67.69 69.12 69.20 69.01 68.48 67.70 66.34 64.69 64.53 63.72 62.87 62.96 64.18 63.41 63.91 63.58 63.80 63.64 66.44 66.47 67.83 66.55 65.35 64.33 63.90 63.35 62.57 62.07 61.89 61.95 61.59
67.99 67.74 67.19 67.72 66.37 66.37 66.68 65.73 64.39 63.88 64.36 64.31 63.46 64.10 63.64 63.22 63.61 62.47 63.70 63.40 65.00 65.97 66.56 67.76 67.22 65.91 64.76 64.19 63.13 61.98 61.61 61.40 60.92
66.75 66.74 66.84 66.50 66.04 65.62 65.45 65.20 64.54 64.16 63.94 63.74 63.34 63.44 63.13 63.37 64.22 63.03 62.42 63.14 64.46 65.85 66.49 66.57 68.35 68.13 66.72 65.76 65.11 63.74 62.63 62.26 61.71
66.62 66.38 66.47 66.38 65.81 65.65 65.16 64.63 63.92 63.21 63.26 63.78 63.94 63.40 64.36 65.37 65.68 66.01 61.50 62.80 63.69 64.94 66.35 66.94 67.13 68.17 68.63 67.56 66.91 65.83 65.08 64.27 63.73
66.17 65.72 65.75 65.30 65.35 65.00 64.34 63.76 63.45 63.09 63.39 64.34 65.20 65.54 66.29 66.51 66.54 67.04 64.55 63.06 63.92 65.04 66.21 67.17 67.45 67.68 68.29 68.70 68.33 67.58 66.87 66.31 65.62
64.72 64.31 64.41 64.76 65.23 64.49 64.31 63.36 63.36 63.83 64.59 64.94 65.22 65.64 66.45 66.58 66.49 67.12 67.67 65.62 62.77 64.63 66.25 67.25 67.67 67.87 67.95 68.51 68.54 67.94 67.80 67.34 67.15
65.93 65.39 65.88 66.70 66.50 65.80 64.12 63.35 62.61 64.35 64.58 64.25 64.72 65.55 66.44 66.42 66.66 66.96 66.90 67.14 66.68 64.81 66.09 66.64 66.78 67.43 68.02 68.37 68.31 67.60 68.11 67.23 66.67
67.11 67.14 67.31 67.27 66.12 65.16 64.81 64.53 64.08 63.61 63.79 63.78 64.52 65.71 66.00 66.19 66.01 65.62 65.86 66.56 67.04 66.75 65.40 64.65 64.41 65.03 65.98 67.15 67.96 66.98 66.88 66.32 65.94
68.01 67.02 66.15 66.61 65.99 65.17 64.94 64.10 64.78 64.11 63.72 62.71 63.48 65.66 66.18 66.35 65.72 65.30 65.40 65.73 65.88 65.42 65.29 65.82 65.26 63.21 64.30 65.35 66.79 66.42 66.12 65.43 64.83
68.38 67.29 65.60 66.12 65.94 65.71 65.15 64.55 63.66 63.39 64.33 63.41 63.13 64.45 65.27 64.98 65.19 65.35 64.74 64.22 64.13 63.65 64.74 65.19 65.39 64.51 63.49 64.13 65.51 65.22 65.72 64.84 63.60
66.72 66.83 65.82 65.89 65.79 65.74 65.47 65.04 63.38 63.39 64.45 63.26 62.40 59.82 61.01 63.08 63.47 63.56 63.41 62.90 63.25 63.18 63.43 63.02 63.51 64.43 64.49 61.82 63.34 65.01 64.47 63.84 62.97
67.14 67.01 66.50 66.05 65.55 65.11 65.91 64.73 63.79 62.58 64.95 65.39 62.58 58.34 56.52 59.49 61.96 62.61 62.49 61.68 61.41 62.30 62.54 61.84 62.04 62.44 62.12 60.69 59.68 60.38 62.49 62.23 62.60
66.48 66.07 66.69 65.94 65.29 63.65 63.13 63.89 64.68 64.25 62.68 64.04 63.75 62.85 62.12 57.62 56.15 60.47 59.95 60.46 58.87 59.87 60.82 60.53 60.37 60.33 60.77 56.17 57.04 58.58 60.45 60.70 61.41
64.92 65.46 65.11 64.33 64.27 63.39 63.33 62.75 62.11 61.53 60.18 59.47 58.72 58.36 59.19 59.61 57.57 54.17 55.52 57.94 58.56 59.41 59.04 58.78 59.14 59.11 59.22 59.73 56.72 58.09 58.78 59.55 59.94

GFSFLT1_sfc_wetblb_090.txt.gz
Wetbulb
73.25 72.87 72.18 71.95 71.72 71.92 71.24 71.11 70.79 69.50 68.40 67.98 67.71 66.45 66.98 67.29 63.81 64.22 66.79 64.73 68.17 68.22 67.86 67.36 67.25 67.04 67.20 67.17 67.28 67.10 67.08 67.08 67.31
72.61 72.12 70.87 70.31 71.20 70.87 70.97 71.16 70.50 69.00 67.64 67.36 66.76 66.01 66.87 64.90 64.32 64.84 64.95 65.07 68.06 68.06 67.55 67.36 67.25 67.15 66.90 66.78 66.66 66.59 66.84 66.58 66.40
72.08 71.45 69.67 69.60 70.96 71.44 71.91 71.33 70.25 68.65 67.45 66.68 65.66 66.26 65.48 64.55 64.41 65.09 65.03 68.44 68.17 67.78 67.36 66.97 66.85 66.75 66.39 66.24 66.23 66.23 66.09 65.92 65.93
70.61 69.98 71.05 71.11 70.93 71.75 71.53 70.83 70.17 68.69 67.58 66.42 65.76 65.53 64.82 60.71 63.12 66.14 65.36 68.74 68.10 67.61 67.04 66.77 66.45 66.29 66.05 65.67 65.46 65.39 65.61 65.38 65.34
68.92 69.96 70.20 70.16 70.77 70.65 70.64 70.54 70.21 68.97 67.61 66.94 66.55 65.22 64.64 59.72 61.44 64.80 65.87 68.43 67.64 67.16 66.61 66.25 66.10 65.70 65.28 64.96 64.66 64.71 64.57 64.46 64.71
66.95 67.87 68.92 69.52 70.10 70.07 69.44 68.77 68.37 67.27 65.78 65.71 65.41 64.61 60.40 59.57 60.15 61.96 68.22 68.27 67.86 66.98 66.18 65.70 65.10 64.94 64.55 64.20 63.82 63.59 63.62 63.27 63.13
66.62 66.90 68.11 69.30 69.37 69.22 69.17 68.52 67.69 65.09 60.95 60.64 62.77 58.46 58.54 58.12 59.44 60.12 66.54 66.82 67.16 67.54 67.46 66.24 65.36 64.45 64.15 63.54 62.79 62.39 62.29 62.18 61.74
65.54 64.96 66.62 67.03 65.80 65.71 66.30 65.25 62.67 60.53 60.24 60.02 58.76 58.92 58.39 57.26 58.20 61.33 64.90 64.93 66.04 66.22 66.98 67.97 67.50 66.10 64.87 64.50 63.55 62.41 61.97 61.76 61.06
65.25 64.51 64.04 64.51 64.29 62.77 63.04 62.12 60.95 60.20 59.81 58.98 58.96 58.89 58.57 57.90 58.40 59.53 63.50 65.28 65.12 66.22 66.67 66.72 67.83 68.23 67.17 66.19 65.61 64.49 63.12 62.72 62.08
63.50 63.80 64.33 63.91 63.18 62.48 62.40 61.49 60.58 59.14 59.02 59.87 59.13 58.51 58.30 59.41 60.59 57.33 61.82 63.69 65.42 65.55 66.47 67.00 67.26 67.46 68.74 68.35 67.26 66.41 65.62 64.58 64.01
62.93 63.07 62.97 62.32 62.16 61.35 61.34 60.39 59.29 58.99 58.98 59.47 60.47 60.46 61.02 61.92 61.66 61.26 59.49 63.47 64.80 66.22 66.47 67.14 67.64 67.83 67.97 68.52 68.35 67.88 67.21 66.55 66.12
62.53 61.64 61.44 61.02 60.85 60.92 60.03 59.62 59.38 59.12 59.93 59.64 61.08 61.51 61.45 62.34 62.82 62.63 61.99 61.98 62.89 65.34 67.48 67.85 67.99 68.12 68.26 68.35 68.78 68.22 68.04 67.62 67.14
61.59 60.59 60.55 61.33 61.61 61.17 60.11 59.49 57.89 58.96 60.71 60.22 60.54 60.43 62.21 62.63 62.35 64.27 63.21 63.11 64.08 63.62 66.19 67.53 67.85 67.73 67.70 68.24 68.53 68.02 68.09 67.72 67.47
62.77 62.33 62.52 63.18 62.89 61.64 61.24 59.68 59.11 59.13 60.17 60.13 60.05 60.75 61.67 62.23 63.63 62.03 61.98 61.94 62.57 62.42 64.22 64.45 64.93 65.83 66.35 66.80 67.29 67.58 68.45 67.34 66.75
64.50 64.09 63.85 63.67 63.22 61.79 61.58 60.86 60.99 60.89 59.79 60.91 60.20 60.78 61.85 62.40 61.74 61.46 62.99 62.32 60.79 60.14 60.60 61.21 61.65 62.86 65.23 65.56 66.08 66.77 67.31 66.17 65.47
67.00 65.79 63.19 62.27 63.49 62.61 61.87 61.45 60.52 60.37 60.13 58.36 59.02 60.33 62.58 62.81 61.56 60.93 59.49 59.46 59.23 59.36 60.21 60.28 60.35 62.08 63.67 64.54 65.34 66.00 65.86 65.72 64.85
65.96 65.32 64.16 62.65 63.60 62.96 63.12 61.65 60.24 60.41 60.47 58.84 59.08 56.32 57.87 59.51 60.19 58.86 58.98 57.37 57.69 58.95 59.32 58.65 59.28 59.58 59.33 59.89 62.86 64.55 65.84 64.83 63.71
64.95 64.77 64.36 63.70 63.50 63.10 63.08 63.05 62.23 60.32 60.70 61.13 59.09 55.29 53.15 55.37 58.37 57.31 57.22 56.89 55.49 56.34 57.75 58.16 58.12 57.98 57.53 58.50 57.87 60.16 61.82 62.73 63.32
64.55 64.41 64.36 63.93 63.42 62.22 61.93 62.44 61.86 61.45 60.79 61.60 62.34 60.03 58.19 54.26 52.94 56.09 55.09 55.85 54.83 53.64 55.23 55.81 56.42 56.58 55.98 55.85 56.88 58.20 59.87 60.90 61.82
63.87 63.75 63.64 63.16 63.05 62.45 61.94 62.13 62.21 61.79 60.28 59.96 58.46 57.81 57.39 57.12 54.84 51.39 51.27 53.78 54.12 55.45 54.35 54.02 54.14 55.37 55.05 55.13 55.98 57.96 58.92 59.85 60.28

GFSFLT1_sfc_wetblb_093.txt.gz
Wetbulb
73.61 73.27 73.22 72.55 71.82 71.43 70.41 70.10 69.79 69.09 68.82 68.41 67.51 67.22 67.85 66.24 63.60 63.99 65.78 64.19 68.43 68.25 67.92 67.57 67.45 67.37 67.19 67.04 67.00 67.19 67.04 66.96 67.10
73.33 72.63 72.43 71.87 72.00 71.69 70.93 70.62 69.49 68.20 67.88 67.60 67.43 66.69 66.75 63.39 63.52 63.75 63.73 64.52 68.28 68.11 67.90 67.66 67.41 67.08 67.08 67.04 66.99 66.81 66.57 66.58 66.50
72.63 72.27 71.13 69.73 70.29 70.85 70.99 70.63 69.04 67.68 67.45 67.07 66.39 66.01 65.21 64.68 64.16 64.09 64.30 68.37 68.13 67.95 67.49 67.13 67.12 66.87 66.60 66.31 66.19 66.24 66.03 65.93 66.24
71.72 70.95 69.43 70.55 71.31 72.07 71.87 70.40 68.99 67.80 66.87 66.03 65.93 65.12 64.63 60.50 64.17 65.31 64.65 68.75 68.20 67.65 67.17 66.94 66.90 66.68 66.24 65.82 65.72 65.68 65.52 65.48 65.48
69.08 69.79 69.38 69.05 72.05 71.78 71.47 70.69 69.18 68.20 67.37 66.58 66.19 65.14 63.96 58.99 63.76 64.56 65.20 68.37 67.82 67.24 66.74 66.55 66.44 66.03 65.55 65.13 64.91 64.79 64.71 64.43 64.73
67.00 67.72 68.27 69.95 70.46 70.63 70.77 70.58 70.01 68.01 66.32 65.99 65.31 64.57 59.32 58.09 61.98 63.95 68.32 68.41 67.66 67.03 66.40 65.93 65.55 65.38 64.81 64.43 63.95 64.05 63.99 63.11 62.90
66.66 66.67 67.13 69.05 69.45 69.29 69.45 68.91 67.96 64.93 60.52 60.42 62.85 58.65 57.18 56.71 59.45 62.29 68.57 68.60 68.48 68.05 66.94 66.08 65.46 64.80 64.47 63.73 63.17 62.93 62.77 62.30 61.83
65.72 67.27 66.87 66.93 66.10 66.26 66.93 66.12 63.52 60.35 58.91 58.64 57.48 57.51 56.95 55.89 57.80 62.12 66.73 67.47 67.65 66.99 67.95 68.05 66.97 66.02 65.03 64.80 63.91 62.85 62.36 62.10 61.46
64.86 65.62 66.44 66.15 64.30 63.45 63.10 62.20 60.98 59.53 59.02 58.68 58.10 57.32 56.74 56.04 57.02 59.59 64.30 66.41 66.31 67.02 67.01 67.20 67.86 68.09 67.43 66.58 66.02 65.00 63.70 63.16 62.57
64.91 64.07 63.98 63.82 63.61 62.29 61.84 61.10 59.91 59.03 58.72 57.68 57.92 56.87 57.09 56.84 57.58 57.19 62.43 64.56 66.60 66.64 67.07 67.42 67.47 67.77 68.57 68.91 67.66 66.80 66.01 65.02 64.29
64.46 63.86 63.70 63.38 62.95 62.23 61.60 60.30 59.41 58.56 57.82 57.78 57.97 58.41 57.61 57.84 58.99 56.84 58.93 63.62 65.04 67.01 66.98 67.52 67.89 68.05 68.23 68.38 69.00 68.33 67.75 66.94 66.24
63.34 63.07 62.90 62.98 62.13 60.65 60.00 59.48 58.44 57.63 57.70 57.01 58.97 59.90 59.96 60.99 61.06 60.72 58.38 60.74 62.90 65.47 67.43 68.08 68.17 68.32 68.51 68.57 68.56 68.94 68.15 68.03 67.45
61.63 61.08 61.80 61.56 60.62 59.41 58.23 57.75 56.71 56.59 57.59 58.45 59.76 59.87 60.16 60.69 61.20 61.76 61.88 60.63 62.23 63.18 66.12 68.00 68.64 68.48 68.19 68.15 68.29 68.91 68.85 68.34 68.15
61.62 59.88 60.15 60.36 60.26 59.95 59.68 57.72 57.40 56.55 58.68 59.97 60.26 59.69 60.40 61.09 62.29 61.14 62.29 61.61 62.16 61.61 63.04 64.39 65.11 66.18 67.01 67.07 67.27 67.63 68.57 68.47 67.62
61.67 60.98 60.65 61.35 61.10 60.25 60.29 58.70 58.72 58.19 58.84 60.60 59.90 58.98 60.72 60.58 61.27 60.83 61.50 61.92 61.68 59.87 60.80 60.95 61.08 62.44 64.98 65.84 66.23 66.72 67.61 67.43 66.12
63.20 63.19 62.66 62.62 62.59 61.47 60.91 60.20 59.47 59.19 59.74 58.28 57.89 58.33 60.37 60.49 61.76 60.54 59.54 60.14 58.86 58.98 59.61 59.22 59.77 61.39 63.40 64.21 65.06 66.12 66.68 66.41 65.66
65.45 64.16 62.93 61.56 62.58 61.78 60.98 60.24 59.44 59.62 59.67 57.68 57.79 55.24 57.60 59.10 60.01 60.49 58.96 57.49 57.46 58.76 58.24 58.04 58.34 59.40 58.81 59.45 62.38 64.55 65.47 65.94 64.55
65.29 64.39 64.31 62.90 62.82 62.25 61.78 62.52 60.65 58.69 59.59 59.41 59.10 55.28 54.04 55.98 56.76 57.18 56.82 55.69 55.01 55.96 56.94 57.36 57.22 57.30 56.45 57.05 56.94 60.00 62.09 64.17 64.08
63.72 63.74 63.20 63.21 62.99 62.35 62.17 62.15 61.58 61.26 59.43 61.21 61.85 60.04 58.63 54.80 52.62 56.22 56.28 54.82 53.69 53.51 54.53 55.25 55.53 55.86 54.87 55.70 56.72 58.11 59.77 61.14 62.76
63.98 63.67 62.95 62.38 62.57 62.37 61.94 61.24 60.95 60.77 59.86 59.68 58.63 57.93 57.45 56.84 54.53 52.39 51.79 54.30 54.11 53.12 53.25 53.42 54.39 54.20 54.59 54.07 56.02 58.11 58.78 60.16 60.94

GFSFLT1_sfc_wetblb_096.txt.gz
Wetbulb
73.71 73.76 73.26 72.54 71.98 71.80 70.92 70.08 70.26 70.00 69.43 68.23 68.29 68.34 67.88 66.03 63.39 63.63 65.55 64.06 68.18 68.16 67.80 67.61 67.56 67.28 67.20 67.41 67.35 66.97 66.79 66.96 67.01
73.45 73.10 72.66 71.87 71.59 71.00 70.11 70.02 69.40 68.63 68.47 68.11 67.82 67.37 67.27 63.11 62.64 62.69 63.01 64.44 68.33 68.14 67.96 67.59 67.37 67.33 67.20 67.04 66.87 66.45 66.47 66.59 66.50
72.87 72.50 72.40 71.92 71.68 70.62 70.38 69.47 68.45 67.86 67.89 67.98 66.90 66.49 66.38 64.32 63.11 63.19 63.76 68.12 68.04 67.98 67.58 67.37 67.19 66.93 66.54 66.37 66.31 66.01 65.92 66.08 66.22
72.47 71.93 71.84 70.88 69.95 71.44 70.89 69.35 67.73 67.61 67.51 66.96 65.99 65.71 65.26 62.93 63.37 64.50 64.22 68.84 68.25 67.84 67.41 67.15 66.94 66.67 66.17 65.96 65.80 65.52 65.40 65.49 65.62
71.31 70.22 69.57 70.24 71.03 71.31 71.20 69.48 67.97 67.59 67.20 66.31 65.16 64.31 63.82 62.01 63.38 64.01 64.13 68.45 68.00 67.52 67.07 66.83 66.48 66.17 65.65 65.23 65.06 64.84 64.60 64.52 64.55
67.82 66.86 68.02 68.95 71.11 71.56 70.94 69.81 68.97 67.97 66.48 65.82 64.65 63.20 58.04 59.82 62.87 63.58 68.11 68.45 67.81 67.14 66.67 66.30 66.02 65.65 65.07 64.47 64.20 64.23 63.69 63.07 62.72
66.72 65.95 66.98 69.01 70.09 70.27 70.90 70.31 68.99 65.37 60.21 59.73 62.61 57.57 56.62 56.73 61.28 63.00 68.58 68.41 68.19 67.31 66.65 66.15 65.63 65.23 64.77 64.02 63.29 63.06 63.04 62.21 61.62
66.07 66.13 66.32 67.27 66.21 66.53 67.17 66.40 63.25 59.32 57.88 57.37 56.72 56.49 55.74 56.09 59.10 62.12 68.18 68.80 68.59 68.62 68.14 67.32 66.63 66.05 65.25 65.02 64.12 63.13 62.56 62.26 61.30
65.16 65.96 65.36 66.00 66.24 64.25 63.74 62.67 61.20 59.44 58.32 57.52 57.06 56.26 56.44 55.01 57.06 58.53 65.74 68.24 68.01 67.73 67.65 68.27 68.50 68.00 67.36 66.69 66.20 65.23 63.99 63.34 62.84
65.20 64.81 65.61 65.05 65.39 64.11 62.19 61.48 60.08 58.37 57.93 57.81 57.48 57.22 56.16 55.41 56.09 56.34 62.58 65.20 67.49 68.11 67.85 67.79 67.78 68.27 68.73 68.86 68.05 67.07 66.27 65.25 64.54
64.76 64.35 64.16 63.66 64.90 63.70 62.39 60.73 59.23 57.90 57.69 57.29 56.55 57.05 56.49 55.91 56.67 56.34 58.03 63.75 65.25 67.47 67.64 67.97 68.21 68.25 68.30 68.36 68.75 68.70 68.04 67.27 66.30
64.98 64.07 63.92 64.14 64.15 63.36 60.66 59.83 59.38 57.97 57.71 56.21 56.37 57.25 57.27 57.72 58.90 57.20 56.63 59.63 62.76 65.18 67.59 68.24 68.18 68.33 68.45 68.53 68.68 69.50 68.64 68.17 67.73
64.73 64.03 63.63 64.12 63.39 62.12 60.17 59.36 57.21 56.27 55.86 55.49 56.24 57.69 59.15 59.29 60.10 60.51 58.69 58.74 60.33 62.42 65.91 67.80 68.70 68.72 68.48 68.08 67.87 68.52 68.90 68.70 68.65
64.23 63.49 63.01 62.66 61.32 60.39 59.50 57.25 56.84 55.23 56.33 57.55 58.07 58.58 58.82 59.43 61.38 60.75 60.63 60.80 60.20 60.44 62.32 64.12 65.11 66.37 67.26 67.05 67.25 67.37 68.15 68.89 68.21
63.33 62.41 62.24 61.27 60.42 59.78 58.91 57.34 57.03 56.06 56.53 59.39 59.60 59.17 59.37 59.91 60.46 60.55 61.25 60.82 60.92 60.84 60.75 61.03 61.15 62.25 64.34 65.26 65.60 66.57 67.22 68.14 67.19
62.83 62.02 60.62 60.95 60.42 60.12 60.02 58.22 57.27 57.63 57.60 57.18 57.06 57.40 58.28 59.80 60.30 61.25 60.15 60.18 59.81 58.88 59.18 59.08 59.50 60.91 63.22 63.61 64.50 66.04 66.62 67.20 66.18
62.41 61.94 60.77 60.88 60.79 60.43 60.20 59.87 58.26 58.21 58.70 56.52 56.58 54.51 56.86 58.56 59.96 59.44 58.82 58.89 58.53 58.35 58.11 57.95 58.85 58.73 58.37 58.94 61.63 64.18 65.18 66.11 65.67
62.94 62.50 62.36 61.57 61.97 61.09 60.57 60.03 59.15 58.06 58.83 59.17 57.93 54.65 53.57 55.82 56.65 56.79 57.14 56.73 56.92 57.07 56.87 57.47 58.03 57.06 56.34 56.72 56.69 59.94 62.33 64.89 64.89
63.44 63.67 63.42 62.58 62.43 62.29 61.58 61.36 60.75 59.90 58.27 59.41 60.28 58.98 56.96 53.32 52.25 55.48 55.27 55.36 54.77 55.75 55.68 55.80 55.60 55.40 54.83 55.66 56.55 58.13 60.01 61.42 63.99
62.89 63.41 62.78 61.56 61.04 61.28 61.02 60.67 60.71 60.79 59.83 59.09 58.65 58.05 57.77 56.90 54.80 52.01 53.27 55.02 54.55 54.53 54.39 55.08 55.14 54.90 54.17 53.83 55.89 57.95 58.76 60.12 61.12

GFSFLT1_sfc_wetblb_099.txt.gz
Wetbulb
73.40 73.94 72.89 72.80 72.47 72.11 71.58 71.21 70.59 70.18 69.80 68.85 68.40 68.05 67.43 65.27 62.48 63.15 65.25 63.56 67.90 68.06 67.75 67.57 67.43 67.52 67.64 67.35 66.98 66.85 66.92 66.89 66.42
73.43 73.10 72.41 72.18 72.15 71.54 70.72 70.25 70.31 69.43 69.28 68.72 68.37 68.16 66.76 62.45 61.70 62.07 62.90 64.14 68.25 68.34 67.71 67.52 67.46 67.37 67.16 66.88 66.54 66.56 66.73 66.39 66.28
72.64 72.48 72.26 71.93 71.10 70.60 70.25 70.08 69.10 68.47 68.47 67.89 67.89 67.95 65.85 63.36 62.08 62.29 62.82 67.91 68.15 68.01 67.67 67.35 67.20 66.93 66.68 66.59 66.23 66.12 66.18 66.10 65.83
72.46 72.00 72.09 71.64 70.98 70.61 69.86 69.12 68.10 67.95 68.43 66.90 66.76 67.68 65.83 61.93 62.60 63.78 63.62 68.73 68.23 67.79 67.28 67.18 66.98 66.46 66.17 65.96 65.77 65.52 65.31 65.37 65.21
71.07 70.78 71.12 71.49 71.14 71.16 70.21 68.61 67.64 68.04 68.38 66.94 65.87 65.83 65.70 61.63 62.63 63.24 63.53 68.44 67.88 67.60 67.17 66.79 66.55 66.09 65.60 65.41 65.17 64.76 64.40 64.34 64.33
68.66 68.58 68.95 69.56 70.03 70.72 70.08 68.70 68.49 67.59 66.18 65.63 64.82 62.50 59.65 60.04 62.14 62.68 66.56 68.43 67.83 67.18 66.78 66.47 66.06 65.61 65.19 64.75 64.59 64.29 63.60 63.03 62.81
67.84 65.62 66.96 68.71 69.35 70.58 70.49 69.49 68.72 65.84 60.75 60.34 62.75 57.05 56.63 59.32 61.61 62.32 67.76 68.24 68.05 67.33 66.59 66.18 65.81 65.40 64.80 64.11 63.70 63.46 62.95 62.17 61.86
66.03 65.68 65.82 66.17 67.07 68.93 68.88 68.03 64.22 60.02 57.89 56.82 56.35 55.75 54.95 55.20 58.88 62.47 67.27 68.52 68.59 67.87 67.26 66.80 66.33 65.73 65.32 64.82 64.07 63.33 62.90 62.43 61.42
65.70 65.19 64.93 65.89 66.50 66.27 65.25 63.35 61.81 59.37 57.01 55.77 55.30 55.07 54.83 55.11 56.14 59.16 65.12 68.74 68.69 68.74 68.65 68.26 67.93 67.45 66.96 66.29 66.03 65.16 64.12 63.62 63.06
65.06 65.28 64.32 64.96 65.41 65.28 63.84 62.20 60.25 58.56 57.47 57.20 56.86 56.37 55.05 54.89 55.04 56.37 61.52 66.03 68.68 68.77 68.06 68.17 68.44 68.52 68.51 68.41 67.96 67.28 66.66 65.50 64.71
65.04 65.15 64.69 64.12 65.01 64.47 64.09 62.66 60.64 58.22 57.09 56.74 56.54 56.36 56.58 55.29 54.68 55.56 56.91 63.65 65.59 68.04 68.05 68.31 68.38 68.49 68.47 68.52 68.57 68.78 68.56 67.66 66.68
65.08 64.79 64.60 64.42 64.28 63.79 62.96 62.05 60.66 58.02 56.91 55.95 56.36 55.83 55.85 55.14 55.30 55.85 55.83 58.38 62.56 65.05 67.55 68.24 68.25 68.43 68.51 68.56 68.69 69.44 68.87 68.46 67.91
64.82 64.32 64.44 64.65 63.89 63.72 62.51 60.93 59.98 57.80 56.41 55.67 55.51 55.58 56.45 56.90 57.67 58.18 56.70 56.70 58.85 61.87 65.61 67.59 68.72 68.62 68.50 68.54 67.96 67.92 68.83 68.67 68.57
63.74 63.82 64.15 64.00 63.77 62.95 62.35 60.28 59.09 56.77 55.96 55.47 55.57 55.79 56.99 58.10 59.64 59.35 59.15 58.20 58.78 58.78 61.80 64.01 64.92 66.51 67.66 67.54 67.12 67.23 67.88 68.60 68.23
63.99 63.21 63.29 63.47 62.73 62.16 60.32 60.28 57.71 56.31 57.07 57.20 57.44 57.35 58.13 58.62 58.94 59.70 60.91 60.18 59.90 59.37 59.99 60.05 61.47 63.13 64.86 65.80 65.70 65.85 66.67 67.61 67.84
63.79 63.79 63.32 63.09 61.81 61.10 60.44 59.42 57.19 56.78 56.20 56.16 56.53 57.06 57.85 57.96 59.07 60.02 60.07 59.60 60.12 60.13 60.38 60.29 59.64 61.13 63.73 64.14 63.96 65.07 66.23 66.87 67.51
63.12 62.68 61.96 61.89 61.09 60.31 59.92 59.16 57.31 57.42 57.43 55.38 55.50 53.82 55.55 57.85 58.81 59.53 59.40 58.70 58.88 58.95 59.15 58.59 58.80 58.52 58.18 58.70 61.98 63.44 65.12 66.15 66.36
62.10 62.35 61.94 60.96 61.04 60.09 59.91 59.56 58.84 57.38 57.81 58.04 56.72 53.49 52.57 54.92 56.74 56.93 57.49 57.16 56.83 57.79 57.75 57.83 58.50 57.69 56.74 57.88 58.02 60.53 62.04 65.47 66.34
63.60 62.57 62.14 61.00 60.70 60.12 60.10 60.21 59.56 59.21 57.42 57.29 59.25 58.25 56.90 54.16 52.65 54.63 54.52 54.83 54.66 56.27 56.62 56.58 57.13 56.38 55.62 55.87 56.18 58.35 60.00 61.97 65.10
63.02 62.95 62.19 61.57 60.61 60.48 60.42 59.83 59.77 59.81 58.07 58.02 57.60 56.94 56.67 56.08 54.11 52.47 53.04 54.94 54.48 55.36 55.80 55.63 56.04 55.83 55.08 55.07 55.71 57.51 58.99 60.38 61.88

GFSFLT1_sfc_wetblb_102.txt.gz
Wetbulb
72.98 73.92 73.60 73.20 72.61 72.81 72.14 70.98 70.39 70.24 69.67 68.74 68.79 68.23 67.18 65.00 61.82 62.59 64.98 63.18 67.97 68.14 67.79 67.63 67.72 67.73 67.45 67.22 67.05 67.00 66.87 66.58 66.66
73.65 73.05 73.10 72.73 72.40 72.16 71.25 70.80 70.17 69.05 69.85 68.66 68.51 67.90 66.43 61.94 61.37 61.84 62.57 63.90 68.37 68.29 67.93 67.67 67.64 67.38 67.10 66.75 66.75 66.81 66.79 66.67 66.27
73.08 72.52 72.91 72.43 72.04 71.55 70.55 70.40 69.78 68.72 68.96 68.56 68.65 67.58 65.31 62.65 61.33 61.67 62.34 67.93 68.31 68.20 67.77 67.46 67.16 66.93 66.75 66.51 66.33 66.33 66.32 66.09 66.06
72.74 72.30 72.37 72.03 71.90 71.47 70.71 70.19 69.12 68.54 68.53 67.80 69.43 67.35 65.39 60.90 61.68 62.98 62.97 68.69 68.19 67.97 67.55 67.18 66.73 66.33 66.23 66.06 65.72 65.64 65.62 65.63 65.46
71.62 71.06 71.00 71.47 71.41 71.10 70.62 69.35 68.38 68.81 68.56 67.11 68.33 66.79 65.41 60.72 61.71 62.50 63.03 68.36 68.08 67.68 67.33 66.93 66.64 66.10 65.71 65.56 65.23 64.81 64.64 64.63 64.61
68.76 68.75 69.58 70.57 70.96 70.85 69.82 68.82 68.62 68.34 67.16 66.20 65.68 65.84 61.66 60.27 61.42 61.87 65.57 68.21 67.89 67.44 67.14 66.74 66.29 65.89 65.44 64.99 64.76 64.18 63.64 63.32 63.17
68.27 67.14 68.13 69.79 69.96 70.09 69.93 68.86 68.45 65.84 61.21 61.27 63.03 57.68 58.81 58.74 60.87 61.43 66.09 68.45 68.25 67.59 66.98 66.62 66.25 65.82 65.28 64.54 64.01 63.70 62.97 62.48 62.23
65.39 65.23 67.26 66.39 65.78 67.65 68.82 67.12 63.63 59.84 58.41 57.65 57.51 56.19 55.80 56.24 60.44 62.47 65.94 68.50 68.45 67.98 67.30 66.85 66.52 66.03 65.64 65.03 64.41 63.82 63.37 62.70 61.85
64.37 64.80 64.95 65.45 67.04 67.47 67.24 65.22 63.36 59.43 56.94 55.55 55.17 55.10 54.59 54.67 55.43 59.24 64.48 67.97 68.73 68.99 68.14 67.71 67.41 67.17 66.79 66.42 66.21 65.42 64.51 64.06 63.54
64.94 65.25 64.99 65.33 65.74 65.28 65.37 64.61 61.87 59.61 56.95 55.67 54.88 54.48 54.05 54.12 54.62 55.82 60.65 65.27 68.34 69.11 68.95 69.01 68.92 68.67 68.49 68.08 67.79 67.40 66.95 65.99 65.08
63.30 63.69 64.77 64.67 65.51 64.56 64.45 63.72 61.58 59.79 57.23 56.24 56.01 55.92 56.01 54.82 54.35 54.40 56.33 61.93 65.86 68.07 68.52 68.52 68.76 68.80 68.66 68.78 68.86 68.84 68.62 68.12 67.30
63.52 63.55 63.42 63.36 64.98 64.68 63.64 63.08 61.04 59.15 57.81 55.92 55.80 55.87 55.22 55.49 54.95 54.62 54.82 56.79 62.43 64.68 66.85 68.33 68.61 68.75 68.76 68.73 68.81 69.42 68.88 68.76 68.25
63.13 63.35 63.53 64.09 64.23 64.38 63.30 62.65 61.30 59.16 58.30 56.28 55.39 55.44 55.25 55.09 54.95 54.97 55.47 55.57 57.30 60.98 64.81 66.95 68.79 69.03 68.59 68.73 68.80 68.45 68.60 68.67 68.64
63.82 63.69 63.40 64.29 64.16 64.03 63.45 61.94 61.49 58.94 58.54 56.20 55.88 55.38 55.13 55.64 57.66 56.80 57.32 56.37 56.89 57.52 60.73 63.19 64.61 66.59 68.01 68.26 68.27 67.39 67.76 68.41 68.44
63.89 62.39 62.57 62.73 61.15 62.17 62.74 62.40 60.06 59.91 59.50 57.99 57.14 55.60 56.08 56.36 56.86 57.87 59.41 59.30 57.70 57.66 58.05 58.93 60.74 63.18 65.88 66.76 66.63 66.82 66.85 67.20 67.86
63.55 63.25 61.60 62.54 60.56 60.40 61.51 61.57 60.38 57.51 57.16 55.26 55.41 56.40 56.78 57.22 57.99 58.90 59.10 59.46 59.92 59.55 58.66 58.94 59.60 60.67 63.84 65.31 65.64 65.88 66.56 66.98 67.14
61.93 63.09 62.95 62.68 61.85 61.41 61.09 60.99 59.59 59.42 57.89 55.08 54.79 52.68 54.91 57.03 58.44 58.86 59.38 59.37 59.50 59.22 59.42 59.31 59.30 59.81 60.46 60.11 63.86 64.56 65.49 66.45 66.91
62.56 62.81 62.74 62.13 62.03 61.16 61.05 60.67 60.05 57.81 57.18 58.01 55.17 52.14 51.20 53.51 56.60 57.29 58.73 58.38 57.62 58.22 58.72 58.66 58.52 58.41 57.99 59.34 59.70 61.16 62.51 65.60 66.75
62.76 62.26 62.31 62.08 61.44 61.19 60.93 60.54 59.88 58.60 56.24 55.98 57.17 56.67 55.91 53.49 52.45 54.86 54.91 56.11 56.28 56.94 57.06 57.63 57.81 57.26 56.74 56.69 56.46 58.69 60.43 63.01 66.30
61.64 62.49 62.27 61.64 61.32 60.91 60.91 60.08 59.35 59.41 58.75 57.04 56.31 55.82 55.83 55.65 53.75 52.29 53.11 54.13 54.05 55.20 55.95 56.70 57.60 57.31 57.04 56.02 56.32 58.36 60.42 62.10 63.96

GFSFLT1_sfc_wetblb_105.txt.gz
Wetbulb
73.84 73.99 73.31 72.35 72.79 72.83 72.13 71.89 71.31 71.18 70.69 69.63 69.01 67.86 67.56 66.27 67.19 67.11 67.30 67.47 67.97 68.21 67.94 68.01 67.99 67.80 67.62 67.44 67.38 67.29 67.06 67.10 66.87
73.63 73.55 73.10 72.76 72.59 72.78 71.61 70.88 70.15 69.44 69.75 69.25 69.06 67.82 66.39 66.35 66.88 67.20 67.78 68.40 68.53 68.38 68.25 67.99 67.93 67.64 67.24 67.22 67.23 67.08 66.97 66.56 66.45
72.94 73.03 73.21 72.98 72.66 72.10 71.26 70.46 69.53 69.46 69.30 69.05 68.57 67.40 65.65 65.24 66.56 67.22 67.94 69.09 68.42 68.22 67.89 67.63 67.40 67.25 67.11 66.86 66.80 66.85 66.57 66.40 66.25
72.49 72.44 72.51 72.52 72.14 72.05 71.61 70.33 69.51 69.25 69.21 69.85 68.80 67.02 65.41 65.83 66.30 66.54 67.87 68.76 68.47 68.04 67.65 67.23 67.00 66.85 66.67 66.33 66.18 66.08 65.94 65.77 65.63
71.64 71.29 71.38 71.48 71.33 71.39 71.22 70.72 69.52 69.74 69.11 69.31 68.74 66.61 65.12 65.51 66.14 66.94 67.51 68.07 68.44 68.06 67.61 67.20 66.76 66.45 66.21 65.81 65.49 65.35 65.08 65.03 64.82
70.90 69.27 69.50 70.51 70.80 71.21 70.99 70.36 69.52 69.07 67.55 67.72 67.80 66.00 66.50 65.44 65.74 66.56 66.23 68.51 68.38 67.99 67.46 67.16 66.77 66.19 65.86 65.48 65.15 64.69 64.25 63.91 63.65
70.51 68.21 68.10 70.12 70.17 70.29 70.46 69.68 68.83 67.78 67.15 65.45 65.87 66.95 66.40 65.67 65.44 65.79 65.94 68.66 68.63 68.08 67.49 67.17 66.72 66.26 65.61 65.08 64.71 64.30 63.66 63.23 62.81
70.30 70.11 70.09 70.16 67.82 69.78 69.39 68.36 67.20 65.88 65.68 64.34 64.00 63.71 65.26 65.35 65.02 65.28 65.46 68.25 68.82 68.30 67.60 67.21 66.83 66.52 66.06 65.45 64.83 64.30 63.95 63.33 62.53
69.43 69.21 69.90 69.19 69.28 68.56 69.15 68.18 66.79 63.96 63.77 63.23 63.01 62.29 62.44 62.64 63.39 64.95 64.49 66.99 68.80 68.79 68.32 67.82 67.47 67.13 66.74 66.59 66.21 65.48 64.79 64.39 63.79
68.03 67.55 68.26 68.89 68.62 68.61 68.35 67.70 66.14 64.66 62.65 61.37 60.67 60.92 61.28 61.39 61.41 61.82 60.67 64.21 67.61 68.93 69.33 68.98 68.60 68.33 68.02 67.88 67.67 67.39 67.00 66.23 65.39
67.41 67.30 66.63 67.09 67.47 67.62 67.80 67.34 66.68 64.58 63.62 61.75 60.61 60.29 60.42 60.57 60.73 61.04 61.45 61.89 64.86 67.47 69.11 69.15 69.16 69.37 69.23 69.02 68.89 68.95 68.68 68.30 67.71
66.25 66.47 66.74 67.02 67.42 66.62 66.01 66.87 65.49 65.13 63.77 62.42 61.53 60.86 61.22 61.04 61.16 61.26 60.87 61.12 60.97 64.77 66.90 68.30 68.68 69.04 69.14 69.12 69.09 69.67 68.89 68.49 68.43
66.61 66.29 66.44 66.96 66.88 67.08 66.66 63.94 64.00 62.65 63.63 62.25 60.91 61.07 60.83 61.01 60.93 60.97 61.05 60.63 60.55 61.81 64.77 66.58 68.31 69.08 69.06 69.29 69.17 69.30 68.78 68.62 68.98
65.93 66.16 66.42 66.70 66.40 66.19 65.99 64.38 63.40 61.91 60.93 61.91 61.64 62.21 61.35 60.72 60.57 60.89 60.64 60.82 60.64 61.11 61.18 63.07 64.28 66.54 68.76 68.82 68.87 68.64 68.34 68.30 68.66
65.61 65.05 65.04 65.81 64.99 64.61 65.12 63.94 62.06 61.61 61.55 60.58 59.77 61.22 61.72 61.44 61.48 61.45 61.21 61.74 61.64 61.40 61.27 61.59 62.04 62.74 66.12 67.59 68.05 68.18 67.30 67.42 67.65
64.95 64.58 63.94 64.64 63.60 63.13 63.52 63.88 62.27 60.69 60.05 59.23 58.75 59.10 60.05 60.26 61.11 61.20 61.17 61.52 62.60 62.85 61.92 61.57 62.31 62.80 63.82 65.94 67.36 67.30 67.04 67.11 67.09
64.01 64.37 63.52 63.35 63.72 62.60 62.12 62.28 61.15 60.80 59.06 57.87 56.32 55.13 57.69 59.06 60.47 61.28 60.56 60.98 62.42 62.57 62.67 62.36 62.22 63.20 63.89 64.02 65.25 66.44 66.86 66.89 67.07
63.64 63.79 64.49 64.38 63.66 63.41 61.81 61.24 60.04 58.81 59.34 59.36 57.02 54.08 53.93 57.21 59.68 60.39 61.22 61.38 61.81 61.63 62.31 61.97 62.52 62.68 63.41 63.06 63.09 62.98 64.73 65.74 66.56
63.88 63.91 63.81 64.01 63.84 63.04 61.77 61.54 60.73 59.79 57.17 57.17 58.84 59.15 58.03 55.56 54.78 57.90 58.17 60.07 60.58 61.41 61.73 62.00 61.42 61.98 62.51 61.25 60.05 60.06 61.43 64.42 65.91
63.02 63.60 63.49 63.54 63.68 63.37 62.86 61.12 60.43 60.53 59.33 58.03 57.01 57.27 57.89 59.43 57.58 56.15 57.52 57.03 58.44 60.47 60.79 60.04 60.94 61.54 62.00 62.09 60.14 58.53 61.10 64.12 65.75

GFSFLT1_sfc_wetblb_111.txt.gz
Wetbulb
72.90 73.23 73.05 73.20 72.65 72.71 72.87 71.66 70.91 71.03 70.53 70.15 69.77 68.43 67.65 67.49 66.82 66.95 66.58 67.52 67.95 67.77 68.29 68.12 68.03 67.85 67.83 67.75 67.40 67.30 67.07 67.03 67.03
73.25 73.02 73.60 73.41 72.26 72.38 71.90 71.04 70.57 70.12 70.07 69.43 68.30 67.78 67.74 66.55 66.03 66.35 67.22 68.07 68.37 68.27 68.15 67.97 67.68 67.54 67.48 67.37 67.15 66.94 66.74 66.56 66.40
72.79 73.01 73.18 72.96 72.15 72.08 71.76 71.09 70.47 70.04 69.98 69.68 68.93 67.77 66.71 65.34 65.94 66.72 67.95 68.71 68.64 68.44 67.85 67.52 67.26 67.02 67.03 66.98 66.75 66.48 66.39 66.33 65.97
72.58 72.46 72.84 72.86 72.90 72.59 72.12 71.50 70.88 69.92 69.65 70.41 69.48 67.66 66.11 65.01 65.82 66.31 67.86 69.11 68.78 68.45 67.87 67.33 67.03 66.69 66.48 66.28 66.19 65.91 65.72 65.71 65.47
71.74 71.39 71.44 72.54 72.48 72.27 71.81 71.10 70.57 70.21 70.26 70.07 68.96 66.98 65.82 65.19 66.02 66.23 67.82 69.24 68.71 68.32 67.85 67.42 67.01 66.65 66.20 65.81 65.44 65.20 65.12 64.94 64.88
70.80 69.79 69.67 71.25 71.78 71.47 71.11 70.76 70.45 69.94 69.09 69.71 68.27 66.05 65.83 65.24 65.32 66.04 68.47 68.76 68.68 68.26 67.75 67.40 66.93 66.58 66.18 65.63 65.12 64.70 64.48 64.33 64.08
69.33 68.20 68.27 70.40 70.95 70.35 70.82 70.56 69.99 68.57 67.47 67.11 67.62 66.20 66.46 66.53 65.62 65.97 68.59 68.93 69.11 68.57 67.90 67.56 67.18 66.61 66.14 65.73 65.29 64.66 64.13 63.72 63.28
69.70 70.16 70.26 70.81 67.84 70.85 69.79 69.59 69.05 67.48 66.11 66.20 66.36 66.72 66.33 66.47 66.41 66.84 67.99 68.35 69.32 69.04 68.36 67.79 67.50 67.08 66.69 66.09 65.53 65.11 64.44 63.98 63.45
68.42 69.01 70.26 70.51 70.55 70.23 70.82 70.01 69.07 68.14 66.47 65.72 65.41 65.85 66.51 66.38 66.32 66.21 65.89 67.51 68.57 69.33 69.15 68.44 67.95 67.63 67.26 66.90 66.45 65.88 65.44 65.07 64.55
68.95 69.18 70.15 70.03 70.81 70.32 70.11 69.94 68.36 67.74 66.59 65.81 65.21 64.61 64.96 65.04 65.35 65.37 63.96 65.85 67.20 68.36 69.37 69.31 68.75 68.31 68.12 67.86 67.47 67.20 66.84 66.35 65.91
68.92 69.76 70.27 70.29 70.98 70.74 69.76 69.06 69.22 67.39 66.07 65.20 64.22 63.69 64.44 64.51 64.32 64.64 64.53 64.70 65.97 66.68 67.92 69.26 69.40 69.19 68.95 68.79 68.48 68.17 68.06 67.90 67.63
67.24 68.17 69.30 69.64 70.57 69.98 70.22 69.24 68.83 67.39 65.99 63.48 61.49 61.74 62.92 63.45 63.12 63.62 64.09 63.62 62.57 64.97 66.63 67.41 68.63 69.59 69.56 69.67 69.22 69.50 69.61 69.16 68.64
66.17 66.60 67.90 68.47 68.59 68.68 68.20 67.19 65.57 66.29 65.06 64.07 62.10 60.08 60.22 61.57 61.85 62.57 62.84 63.36 63.55 62.43 64.63 66.58 67.44 68.40 69.32 69.66 69.64 69.64 69.15 69.20 69.00
65.16 64.52 65.24 66.58 67.05 67.13 67.11 67.43 67.16 65.79 66.08 65.69 65.19 64.08 62.72 61.55 61.17 60.70 62.45 63.26 63.62 64.00 63.20 63.20 64.45 66.30 68.40 68.89 69.57 69.88 69.20 68.69 69.03
64.85 64.96 64.47 64.35 65.43 66.06 66.04 65.96 66.46 65.53 64.84 63.99 64.09 65.41 64.62 63.14 62.99 61.76 61.80 62.52 63.69 64.06 63.85 63.45 62.20 62.70 65.78 67.14 67.99 69.06 69.71 69.18 69.08
65.39 64.38 64.25 64.86 64.34 64.07 64.85 64.44 63.86 63.84 64.70 63.18 62.61 63.61 64.11 63.47 62.71 62.84 62.67 61.98 61.75 63.82 63.82 63.60 63.71 63.38 63.32 64.81 66.70 67.71 68.49 69.14 69.04
64.91 64.10 63.88 64.97 64.50 63.84 63.67 63.35 62.53 62.95 63.50 60.47 59.74 57.20 59.10 60.48 62.09 62.83 62.89 61.42 61.08 62.25 62.89 62.19 62.94 63.05 63.65 62.38 63.88 66.27 67.25 68.31 68.82
65.24 64.77 64.47 63.80 64.49 63.55 63.60 62.96 61.94 60.76 62.80 62.48 60.48 56.20 54.37 58.23 61.65 61.00 61.48 61.35 60.90 61.05 61.35 61.72 62.19 63.29 63.49 63.56 62.80 62.58 64.79 67.70 68.30
63.88 64.88 64.56 64.05 63.93 63.16 63.30 64.16 63.52 62.71 60.88 62.22 62.68 62.19 60.11 55.20 54.93 59.37 60.52 61.28 60.37 60.67 61.38 62.14 62.55 63.10 63.61 62.15 61.47 61.24 62.46 65.83 67.10
62.70 63.38 63.69 63.60 63.66 63.24 63.36 63.14 63.41 63.42 62.06 61.21 60.75 60.63 60.52 58.85 55.19 53.46 56.59 60.57 61.02 60.76 61.37 62.62 62.95 63.17 63.48 64.08 62.80 60.93 63.14 65.54 66.73

GFSFLT1_sfc_wetblb_114.txt.gz
Wetbulb
72.93 73.14 72.80 72.72 72.99 72.71 72.92 72.29 71.34 71.47 71.34 70.26 69.69 68.86 68.00 68.07 63.46 63.00 66.01 65.14 68.37 68.73 68.68 68.22 68.02 68.04 68.02 67.73 67.64 67.30 67.38 67.05 66.64
72.84 73.43 73.16 72.97 73.12 72.26 72.24 71.71 70.92 70.55 70.72 70.14 69.67 68.41 67.80 64.70 62.04 61.39 64.22 65.37 68.65 68.60 68.45 68.15 67.95 67.86 67.71 67.47 67.35 67.03 66.77 66.58 66.37
72.46 72.39 72.74 73.36 73.07 71.86 72.26 71.55 70.69 70.27 70.18 69.51 68.72 68.49 66.55 64.05 61.91 62.91 65.15 68.87 68.55 68.52 68.15 67.81 67.53 67.48 67.41 67.19 66.80 66.66 66.64 66.21 65.85
72.47 72.81 72.54 72.47 72.99 71.93 72.30 71.53 71.10 70.25 70.29 70.59 69.80 67.92 66.02 61.93 61.77 64.43 65.75 69.33 68.81 68.26 67.69 67.47 67.38 67.07 66.88 66.74 66.46 66.20 66.02 65.63 65.45
71.89 71.53 71.36 72.15 72.37 72.38 71.81 71.33 71.07 70.91 70.34 70.38 69.16 67.19 65.38 61.40 61.69 62.40 65.87 69.77 69.13 68.61 67.80 67.23 66.96 66.74 66.35 66.03 65.68 65.51 65.48 65.10 64.91
69.41 69.20 69.38 70.84 71.82 72.08 71.86 71.35 70.56 69.74 68.95 69.21 68.17 66.22 62.54 60.17 60.78 62.21 68.85 69.57 69.19 68.71 68.09 67.70 67.13 66.78 66.24 65.69 65.20 64.96 64.86 64.59 64.30
68.55 67.95 67.93 70.24 70.73 70.78 71.27 70.66 69.82 68.68 66.53 66.72 67.31 63.88 62.75 62.68 60.97 64.03 69.21 69.53 69.19 68.89 68.31 67.98 67.57 67.11 66.62 66.07 65.50 64.98 64.51 64.17 63.74
66.14 66.70 67.77 68.36 67.42 69.08 69.22 68.50 68.03 66.12 64.42 64.25 65.71 64.66 62.97 62.81 61.86 65.54 68.68 69.33 69.16 69.24 68.71 68.10 67.87 67.52 67.08 66.49 66.07 65.67 65.06 64.74 64.26
66.69 66.22 68.09 67.81 67.86 67.89 67.65 67.52 67.10 66.12 64.69 62.07 63.48 64.04 63.42 62.39 61.82 64.20 66.70 68.86 68.88 69.42 69.39 68.62 68.14 67.89 67.51 67.15 66.69 66.18 65.89 65.44 64.94
65.80 65.12 66.58 68.17 67.91 67.68 67.53 67.31 67.35 66.29 65.21 64.35 61.86 60.83 62.16 61.87 61.51 62.06 64.28 66.88 68.67 68.99 69.57 69.62 69.00 68.47 68.23 67.99 67.58 67.16 66.80 66.42 66.07
65.75 66.48 66.82 67.16 67.87 67.73 67.37 67.04 66.86 65.81 65.81 63.98 63.73 61.89 61.14 60.15 60.28 60.32 62.47 64.98 66.61 68.28 68.50 69.41 69.93 69.52 68.97 68.72 68.45 68.00 67.77 67.62 67.36
64.97 66.06 66.53 67.10 67.59 67.60 67.02 66.63 66.67 65.59 64.78 62.28 62.04 61.60 61.38 59.25 60.33 59.63 60.54 63.06 63.75 65.96 67.36 67.90 68.73 69.66 70.11 69.81 69.29 69.34 69.32 69.01 68.83
64.14 65.70 64.78 66.57 66.39 66.56 66.46 66.04 65.19 65.34 64.39 63.89 62.66 62.20 60.61 58.95 59.23 59.85 59.71 60.26 61.64 63.33 66.03 67.29 68.13 68.63 69.15 69.97 70.00 70.08 69.11 68.96 68.95
63.52 64.03 63.29 63.60 63.48 64.57 65.10 64.83 64.69 63.21 63.36 63.81 63.90 62.59 60.58 59.03 59.56 57.50 57.75 58.41 59.52 60.90 61.90 63.66 64.76 66.64 68.54 68.49 69.47 69.81 69.74 69.27 68.95
62.62 62.50 62.75 62.92 62.30 62.08 63.72 63.49 63.45 63.34 63.12 63.58 63.35 62.63 62.50 60.05 59.51 59.94 60.37 59.03 60.54 59.99 60.64 60.92 61.28 63.15 66.18 67.79 68.16 69.04 70.32 69.80 69.14
62.45 62.82 63.07 61.71 61.46 61.32 62.99 62.76 61.97 62.20 63.30 61.10 61.11 62.31 63.47 62.86 61.63 61.07 61.33 60.96 60.74 60.78 61.68 61.42 59.93 60.85 63.54 65.41 67.21 68.55 69.09 70.13 69.79
63.22 62.84 61.75 61.83 62.18 61.63 61.95 61.75 61.29 61.74 62.44 59.29 59.26 56.65 58.97 61.90 62.32 62.33 61.77 60.92 60.19 58.65 59.46 60.97 60.94 61.46 60.79 60.90 64.34 66.57 68.26 68.54 69.79
63.46 62.03 61.72 61.80 61.59 61.19 61.02 61.68 61.56 59.92 60.53 61.53 59.01 55.65 53.96 55.93 58.78 60.37 61.13 60.90 60.88 61.09 60.60 60.19 59.51 60.84 60.41 61.55 61.55 62.85 64.93 67.68 69.02
63.03 63.18 62.17 61.19 60.83 60.37 60.36 62.06 61.47 60.43 59.22 60.85 61.77 60.45 58.87 53.89 51.60 55.19 58.07 59.90 59.73 59.96 60.30 60.38 60.21 60.49 60.71 60.27 60.20 60.54 62.10 65.98 67.43
59.10 59.65 61.22 61.15 60.32 59.56 59.82 61.22 60.14 60.90 59.69 59.04 58.41 59.15 59.35 57.79 55.53 53.63 53.79 55.40 58.29 58.40 59.03 59.40 59.50 60.60 60.96 61.36 61.16 60.60 62.58 65.55 66.76

GFSFLT1_sfc_wetblb_117.txt.gz
Wetbulb
72.96 73.04 72.74 72.19 72.54 72.80 73.29 72.26 71.57 71.73 71.42 70.69 69.56 69.12 68.47 68.13 61.70 63.28 66.71 65.05 68.55 69.27 68.56 67.98 68.09 68.06 67.81 67.78 67.38 67.42 67.16 66.68 66.72
72.88 73.18 72.84 72.64 72.70 72.71 72.50 71.97 71.34 70.79 70.85 70.09 69.91 68.97 68.05 63.26 61.25 61.06 63.56 64.74 68.67 68.43 68.18 67.95 67.88 67.83 67.58 67.51 67.15 66.87 66.70 66.47 66.40
72.92 73.02 72.85 73.19 72.86 72.77 71.99 72.18 71.32 70.51 70.35 70.28 69.83 68.86 66.85 63.14 60.66 61.82 63.96 68.81 68.98 68.86 68.39 67.81 67.57 67.49 67.36 67.11 66.76 66.73 66.38 65.94 66.00
72.66 72.97 72.80 72.77 73.20 72.68 71.96 72.21 71.61 70.55 70.39 70.51 69.42 67.78 66.14 61.44 60.69 64.63 64.93 69.53 69.27 69.01 68.36 67.93 67.53 67.35 67.12 66.79 66.46 66.16 66.07 65.72 65.52
71.73 71.52 71.71 72.47 72.34 72.27 71.99 72.10 71.32 70.89 70.59 70.50 69.68 67.59 65.82 60.89 60.46 61.40 64.88 70.05 69.24 68.85 68.12 67.85 67.72 67.32 66.85 66.51 66.20 65.87 65.56 65.29 65.23
69.16 68.95 69.31 70.75 71.71 71.92 72.16 71.86 71.06 70.06 69.21 69.21 68.93 66.89 62.60 60.19 59.60 61.52 68.20 69.82 69.54 68.97 68.20 67.72 67.61 67.33 66.75 66.37 65.89 65.55 65.48 65.15 64.99
68.98 67.43 67.51 69.49 70.52 70.62 71.90 71.51 70.39 68.58 66.83 66.89 67.18 64.06 61.96 60.70 60.26 60.74 68.89 70.16 69.87 69.32 68.48 68.06 67.65 67.29 66.81 66.29 65.92 65.57 65.31 64.98 64.60
67.64 65.64 66.58 67.68 67.23 68.53 69.63 69.43 68.31 66.54 65.73 65.34 65.11 63.91 62.01 61.29 61.25 63.06 68.69 70.44 69.80 69.51 68.90 68.31 68.02 67.68 67.27 66.75 66.36 65.92 65.47 65.10 64.65
65.37 64.64 66.16 67.13 67.82 67.45 67.20 66.96 66.73 66.05 65.64 62.83 63.96 64.40 63.29 62.36 61.65 62.39 67.11 69.51 69.99 69.49 69.45 68.94 68.38 68.13 67.83 67.46 66.94 66.48 66.15 65.64 65.31
65.94 64.75 65.50 66.91 67.59 67.26 66.80 66.62 66.47 65.84 64.90 64.09 61.65 63.11 63.00 62.25 61.16 61.77 64.36 67.42 69.29 70.02 69.61 69.61 69.10 68.52 68.31 68.10 67.68 67.23 66.79 66.49 66.14
64.86 64.50 65.14 65.59 67.21 67.11 67.29 66.75 66.47 66.12 65.52 64.18 63.40 60.92 62.41 62.86 61.95 61.45 63.46 65.53 67.56 69.20 70.21 69.79 69.85 69.61 69.03 68.67 68.32 67.94 67.68 67.41 67.08
64.31 64.20 64.32 65.38 66.49 66.50 65.98 65.61 66.32 65.58 64.74 64.17 64.05 62.51 60.76 60.48 60.18 58.87 61.38 63.54 64.19 66.88 69.31 69.46 70.07 70.60 70.04 69.64 68.96 69.31 69.08 68.63 68.40
62.85 63.76 64.71 65.27 65.61 65.74 65.23 66.00 65.35 65.31 64.63 63.97 62.97 61.32 60.77 60.33 59.41 60.16 61.03 62.04 63.13 63.98 66.60 67.82 68.92 69.60 69.62 70.08 70.25 70.27 69.60 69.23 69.17
62.17 63.31 63.18 63.23 63.30 63.45 63.67 63.51 63.65 63.25 64.08 64.28 64.39 64.16 62.65 61.19 61.11 58.85 58.09 58.68 60.24 60.67 62.97 64.56 65.53 66.96 68.95 68.82 69.55 70.42 70.19 69.50 69.18
60.92 61.88 61.94 62.03 61.35 61.11 61.78 62.00 62.12 62.82 62.69 63.50 63.57 63.59 63.57 62.41 60.47 60.06 59.55 57.41 57.79 58.92 59.07 60.69 62.20 63.58 66.55 68.38 68.93 69.76 70.33 69.91 69.53
61.77 61.49 60.98 60.98 60.28 60.29 60.50 60.87 59.67 59.61 62.08 61.07 60.74 61.64 62.87 62.43 62.15 60.76 59.62 59.35 59.57 57.69 59.18 60.44 60.78 61.24 63.61 65.73 67.56 68.87 69.73 70.40 70.09
62.30 61.91 61.14 60.41 58.97 59.24 60.35 61.43 60.92 61.29 62.36 59.21 58.91 56.65 58.33 61.31 62.51 62.69 62.49 61.03 61.09 58.79 57.85 58.37 59.13 59.59 60.16 61.32 64.47 66.77 68.57 69.54 70.39
61.59 62.10 62.15 60.79 59.91 60.12 60.17 60.43 60.50 58.41 59.06 60.90 58.22 55.02 53.79 56.29 59.89 61.02 61.60 61.71 61.50 61.15 60.72 58.80 58.86 59.75 60.60 60.66 61.21 62.47 64.79 67.60 69.22
56.65 60.60 61.83 61.07 61.02 59.02 59.64 59.75 58.71 57.99 56.78 58.30 60.41 60.05 57.44 53.22 52.38 56.31 58.88 60.68 60.44 60.27 60.20 60.41 60.13 58.43 58.44 58.86 59.41 59.94 61.77 65.62 67.47
52.21 54.11 59.06 60.94 60.69 60.13 59.28 59.22 59.16 59.04 59.64 58.85 56.66 58.17 58.88 59.00 56.53 54.71 55.51 55.39 57.66 59.29 59.52 59.90 60.08 60.69 60.71 59.87 58.95 59.56 62.04 65.37 67.11

GFSFLT1_sfc_wetblb_120.txt.gz
Wetbulb
73.13 73.09 72.84 72.06 72.00 72.39 72.58 72.56 71.80 71.72 71.29 70.97 69.88 69.38 68.27 66.91 60.75 63.31 66.20 64.28 68.70 69.05 68.28 68.15 68.01 67.70 67.50 67.29 67.15 67.07 66.59 66.49 66.55
72.87 73.20 72.83 72.51 72.28 72.31 72.47 72.42 71.72 71.19 71.03 70.01 69.82 69.71 68.56 62.09 59.91 62.31 63.60 64.25 69.07 69.15 68.26 68.09 68.01 67.85 67.61 67.20 66.95 66.54 66.39 66.21 66.16
73.40 73.35 73.11 73.16 72.28 72.15 72.55 72.61 71.83 71.07 70.49 70.26 70.45 69.93 67.39 62.55 59.92 60.84 62.74 67.76 68.74 68.83 68.40 67.91 67.90 67.69 67.48 67.02 66.77 66.59 66.07 65.88 65.94
72.98 73.18 73.15 72.94 73.10 72.99 72.59 72.63 72.46 71.28 70.63 70.88 70.51 68.96 66.55 60.60 60.18 63.01 63.61 69.60 69.27 69.03 68.35 67.81 67.72 67.59 67.36 66.95 66.62 66.37 65.99 65.57 65.40
71.67 71.60 71.70 72.69 72.44 71.93 72.22 72.10 72.08 71.35 70.90 70.72 69.49 67.66 66.18 60.91 59.72 60.72 64.14 69.49 69.80 69.26 68.47 68.11 67.73 67.51 67.14 66.84 66.56 66.21 65.79 65.52 65.25
68.91 68.69 69.29 70.66 71.74 71.87 71.65 71.71 71.47 70.21 69.29 69.61 69.06 67.41 64.09 59.85 59.05 59.49 66.31 69.52 69.76 69.42 68.62 68.22 68.02 67.63 67.07 66.56 66.21 66.01 65.84 65.60 65.41
69.04 67.26 67.40 69.30 70.13 70.61 71.57 71.54 71.10 69.05 67.55 67.55 67.60 65.71 63.31 59.99 59.38 58.62 66.13 69.64 70.08 69.81 68.78 68.26 68.02 67.80 67.21 66.72 66.32 65.99 65.84 65.63 65.28
67.92 67.42 66.77 66.63 66.44 68.25 69.41 69.58 69.37 67.11 66.34 65.83 65.48 64.26 62.35 60.52 60.26 61.91 66.11 69.77 70.31 70.20 69.25 68.48 68.16 67.95 67.62 67.13 66.65 66.23 65.91 65.65 65.25
66.44 65.54 65.42 65.49 66.82 67.16 67.57 67.63 67.90 66.44 65.96 65.12 65.08 64.53 63.28 62.19 61.05 60.85 64.74 69.03 70.85 70.32 69.81 69.02 68.44 68.23 67.98 67.66 67.15 66.65 66.30 65.86 65.57
64.78 64.94 65.44 65.52 66.37 67.02 66.60 66.41 66.37 65.90 65.47 64.66 63.77 64.04 63.83 62.87 62.02 60.52 62.54 66.81 69.86 70.85 70.43 69.71 69.11 68.64 68.38 68.15 67.66 67.16 66.81 66.52 66.09
64.55 64.89 64.76 66.19 66.45 66.82 66.77 66.11 65.83 65.75 65.47 64.59 63.61 62.61 63.44 63.17 62.46 60.79 61.66 65.32 67.65 69.67 70.81 70.48 69.66 69.32 68.84 68.54 68.21 67.86 67.48 67.15 66.89
63.71 63.79 63.24 64.44 65.41 65.62 66.06 66.02 65.86 65.47 65.32 64.69 64.26 63.31 61.54 61.95 62.42 60.35 61.12 63.72 64.54 67.26 70.18 70.37 70.79 70.39 69.15 68.83 68.44 68.78 68.71 68.33 67.97
63.16 63.12 63.52 64.39 64.44 64.99 65.31 65.14 64.58 65.23 65.54 65.14 64.83 64.56 62.66 59.59 58.42 60.35 60.35 61.68 63.59 64.66 67.38 68.95 69.62 70.51 70.42 69.79 69.41 69.93 69.27 68.99 68.90
61.58 62.37 63.06 63.48 63.55 63.83 64.29 63.81 63.74 63.93 63.94 63.75 64.17 63.55 63.02 63.18 63.47 61.29 60.15 60.02 62.33 62.60 63.60 65.24 66.22 67.60 69.60 69.51 69.34 70.50 69.71 69.40 69.35
61.05 61.57 61.98 62.31 61.18 61.65 61.51 61.81 62.04 61.36 61.34 62.58 63.20 63.82 64.14 64.12 63.67 62.82 62.45 60.97 59.12 60.76 60.96 61.79 62.91 63.86 67.26 68.99 69.25 69.68 70.07 69.63 69.37
59.99 60.72 61.56 60.98 60.96 60.77 60.75 59.85 59.66 59.96 60.51 58.89 60.08 61.27 63.01 62.98 62.89 62.98 62.26 61.25 60.27 57.60 58.85 59.14 59.53 61.10 64.06 66.26 67.93 69.00 69.62 70.01 69.80
58.31 58.60 60.14 61.58 60.55 58.50 58.71 59.30 58.67 58.94 60.84 57.35 56.43 53.48 57.37 61.65 62.19 62.16 61.59 60.98 61.43 60.68 58.52 58.31 58.95 59.32 60.03 61.25 64.41 67.09 68.61 69.07 69.67
55.41 56.77 58.59 60.34 60.41 58.96 58.60 58.91 59.10 58.61 60.67 60.57 55.74 53.44 51.52 54.83 60.30 61.33 61.96 62.17 62.14 61.89 61.27 59.80 58.65 58.77 59.21 59.53 60.74 62.53 64.94 67.79 68.83
50.74 53.41 54.63 55.87 60.19 59.81 58.63 59.91 59.69 58.36 57.59 57.71 58.99 57.36 55.28 51.88 51.46 55.86 59.28 61.15 60.95 61.23 61.03 60.88 60.13 58.30 58.79 58.58 58.37 59.54 61.47 65.24 67.17
47.75 48.74 51.81 51.65 53.23 54.74 59.57 59.70 59.32 59.22 57.08 57.14 57.88 56.50 56.70 56.38 56.01 54.26 55.96 56.62 57.96 59.88 60.54 60.70 60.41 59.90 58.88 58.08 58.28 59.02 61.62 64.42 65.95

GFSFLT1_sfc_wetblb_123.txt.gz
Wetbulb
73.06 72.94 73.00 72.11 71.88 71.99 72.05 72.39 72.03 71.68 71.16 70.43 69.99 69.82 68.68 66.44 60.45 62.40 65.44 63.66 67.49 68.39 68.76 68.05 67.78 67.39 67.36 67.04 66.87 66.76 66.39 66.39 66.55
72.96 73.14 72.89 72.78 71.77 71.61 72.32 72.16 72.20 71.39 70.83 70.24 69.93 69.87 68.65 60.91 59.38 62.69 63.98 63.59 68.76 68.78 67.91 67.89 67.85 67.49 67.28 66.89 66.67 66.17 66.06 65.92 65.81
73.54 73.31 73.03 72.61 72.16 71.64 72.25 72.38 72.30 71.63 70.79 70.27 70.68 70.20 68.02 62.33 59.58 61.58 62.44 65.05 69.16 68.77 68.25 67.96 67.91 67.58 67.37 67.02 66.72 66.35 65.89 65.78 65.71
72.74 73.01 73.15 72.81 72.70 72.56 72.57 72.92 72.43 72.31 71.36 70.83 70.49 69.80 67.87 60.26 59.67 60.61 62.20 65.93 69.13 68.90 68.53 68.08 67.92 67.73 67.49 67.00 66.70 66.39 65.90 65.61 65.45
71.54 71.53 71.74 72.65 72.76 72.59 72.18 72.43 72.64 72.01 70.98 70.71 70.25 68.92 67.19 61.23 59.04 60.66 62.90 67.59 69.60 69.43 68.74 68.26 68.00 67.71 67.43 67.10 66.79 66.52 66.15 65.78 65.44
68.70 68.45 68.98 70.44 71.53 72.11 71.98 71.93 71.84 70.66 69.30 69.75 69.42 67.47 63.87 60.88 58.49 58.74 64.39 68.19 70.02 69.88 68.90 68.42 68.18 67.94 67.51 67.13 66.71 66.33 66.09 65.85 65.62
68.59 67.02 67.30 68.98 69.92 70.18 71.47 71.69 70.94 69.28 67.72 67.79 67.94 66.51 64.11 61.75 59.09 58.04 63.41 68.19 70.20 70.13 69.39 68.49 68.34 68.17 67.63 67.12 66.79 66.46 66.24 65.89 65.62
67.10 67.19 67.23 66.66 65.98 67.13 68.36 69.03 69.35 67.83 66.95 66.29 66.23 66.02 63.72 62.44 60.44 60.59 63.45 66.95 70.06 70.29 69.96 68.92 68.37 68.26 67.92 67.36 66.95 66.53 66.24 66.09 65.76
65.68 65.94 65.97 65.19 66.02 65.88 66.62 67.36 67.76 67.64 66.83 66.03 65.27 65.03 64.30 63.16 61.57 60.12 63.65 66.01 69.18 70.30 70.40 69.67 68.60 68.32 68.17 67.91 67.32 66.80 66.46 66.15 65.86
64.61 64.66 65.61 65.69 65.23 65.70 66.06 66.32 66.29 66.71 66.25 65.58 65.14 64.57 64.26 63.30 62.38 60.23 61.57 64.44 68.15 70.47 71.41 70.32 69.50 68.73 68.48 68.24 67.79 67.25 66.90 66.59 66.23
62.48 63.50 64.28 64.76 65.91 66.25 66.32 65.84 65.52 65.46 65.52 65.46 64.53 64.31 64.16 63.94 63.14 61.67 60.15 63.01 65.48 68.60 70.88 71.15 70.28 69.54 68.90 68.53 68.17 68.24 67.47 67.13 66.84
59.95 61.41 62.92 63.72 64.41 64.97 65.04 65.01 65.22 65.14 65.43 65.10 64.65 64.13 63.06 62.99 63.54 63.53 61.25 60.97 62.97 66.12 70.00 70.71 70.79 70.52 69.45 69.09 68.43 68.78 68.65 68.24 67.86
58.05 59.51 61.39 63.01 63.56 63.95 64.90 64.98 64.60 64.14 64.26 64.17 64.97 64.66 64.06 61.80 62.43 63.23 61.97 61.47 62.27 64.05 66.87 68.54 69.71 70.27 70.53 69.54 69.26 68.19 68.41 68.64 68.57
58.17 60.43 61.30 61.97 62.58 62.80 63.15 64.10 64.20 63.00 63.13 63.88 64.72 65.00 63.78 62.53 62.89 61.47 61.48 60.26 61.33 62.09 63.58 64.78 65.87 67.00 69.39 70.18 69.43 69.70 69.38 69.03 69.02
57.53 57.74 58.63 60.23 60.78 60.45 61.28 61.79 62.96 62.91 62.67 62.98 63.21 63.43 63.35 63.02 62.54 62.55 63.25 63.26 62.75 60.66 61.02 62.25 62.69 63.34 65.97 67.74 69.29 69.50 69.65 69.41 69.34
55.35 56.40 56.87 58.25 58.44 58.49 60.13 60.62 60.31 61.28 60.59 60.64 60.10 60.19 62.35 62.55 62.71 62.80 63.19 62.85 63.05 62.17 61.29 60.17 60.64 62.00 63.63 65.28 66.46 68.53 69.28 69.31 69.23
51.55 51.72 53.03 56.45 58.16 57.55 59.03 59.37 58.64 58.28 59.09 57.57 55.89 55.08 57.54 60.86 61.87 62.14 61.68 61.66 62.32 61.21 60.11 59.74 59.38 59.66 60.28 60.81 64.10 65.85 67.52 68.02 68.60
48.35 48.71 50.03 53.08 55.66 57.42 58.24 58.96 58.79 57.77 58.08 59.64 57.42 53.47 51.10 54.53 59.83 61.04 61.51 61.20 61.10 61.63 61.59 61.30 60.04 59.79 59.77 59.85 60.34 62.07 64.35 67.06 68.17
46.14 46.88 48.20 49.93 52.98 56.64 57.99 59.30 59.23 59.33 57.32 58.66 60.06 58.33 55.78 52.86 51.10 55.31 58.69 60.95 60.90 61.56 61.90 61.56 60.73 59.49 59.38 58.85 58.40 59.39 61.39 64.23 66.03
44.41 44.80 45.91 47.36 49.05 50.28 53.36 55.78 57.35 58.73 58.01 57.39 57.27 58.21 57.99 56.37 54.86 53.14 54.52 54.92 57.50 59.79 60.73 60.89 60.77 60.64 59.79 59.07 58.57 58.77 60.76 63.26 64.82

GFSFLT1_sfc_wetblb_126.txt.gz
Wetbulb
72.89 73.19 72.86 72.33 71.83 71.36 72.04 72.30 72.03 71.62 71.27 70.34 70.73 70.62 69.81 66.90 59.93 61.66 64.72 64.28 67.17 68.21 68.30 67.62 67.46 67.35 67.35 67.19 66.92 66.77 66.59 66.59 67.62
72.70 73.08 72.67 72.56 72.15 71.47 71.45 72.16 72.20 71.85 71.13 70.41 70.09 70.45 69.20 61.93 59.68 61.81 63.31 63.21 68.54 68.45 68.26 67.88 67.74 67.47 67.35 67.05 66.90 66.35 66.26 66.16 66.21
72.74 72.76 72.87 72.68 72.23 72.12 71.45 72.24 72.20 72.14 71.51 70.57 70.98 70.45 68.55 62.51 59.39 61.84 62.95 64.97 69.36 69.33 68.26 68.05 68.06 67.70 67.47 67.09 66.70 66.44 66.16 66.01 65.86
71.91 72.26 72.45 72.30 72.60 72.73 72.59 72.26 72.80 72.55 72.03 71.43 70.57 69.78 68.56 61.47 59.15 60.01 62.43 65.60 69.43 69.39 68.57 68.38 68.13 67.85 67.64 67.35 67.06 66.66 66.11 66.04 65.92
70.78 70.79 70.73 71.53 71.89 72.14 72.24 72.15 72.24 72.61 71.94 70.97 70.19 69.02 68.17 63.15 58.68 59.27 61.02 66.49 69.42 69.65 69.16 68.61 68.36 68.13 67.76 67.32 67.04 66.83 66.55 66.09 65.74
68.03 68.19 68.57 69.77 70.61 71.14 71.67 71.80 71.51 70.78 69.81 69.57 69.21 68.12 65.70 62.49 59.34 58.35 63.12 66.91 69.44 69.98 69.75 68.88 68.57 68.30 67.95 67.60 67.26 66.86 66.55 66.12 65.95
67.37 66.29 67.06 68.83 69.54 69.63 70.51 71.03 70.77 69.37 68.31 67.55 68.07 67.63 65.09 61.88 60.19 57.93 63.02 66.89 69.43 70.04 70.66 69.27 68.67 68.45 68.14 67.75 67.40 66.98 66.53 66.21 65.96
64.67 65.65 66.27 66.38 65.84 66.42 67.09 67.27 68.10 68.14 67.01 66.62 66.54 66.56 65.26 63.90 62.15 61.52 63.11 65.23 68.26 70.06 70.96 70.17 68.99 68.53 68.40 68.03 67.47 67.06 66.69 66.48 66.20
61.09 62.71 63.81 64.13 65.39 65.58 65.86 65.92 66.45 67.05 67.35 66.97 66.00 65.65 65.34 64.99 63.92 61.92 63.70 64.81 66.38 69.39 70.19 71.05 69.74 68.84 68.46 68.30 67.81 67.26 66.89 66.57 66.35
58.38 59.87 61.48 62.47 63.82 64.41 65.37 65.48 65.64 66.05 66.32 66.26 66.16 65.57 65.07 64.48 64.00 62.50 62.12 64.07 65.71 67.52 69.69 71.14 70.52 69.64 68.79 68.45 68.12 67.67 67.20 66.87 66.55
56.89 58.01 58.92 60.48 62.66 63.70 64.36 65.24 65.17 64.94 65.35 65.60 66.07 65.60 65.34 64.72 63.72 62.71 61.28 63.00 64.43 66.34 68.19 70.56 70.33 70.17 69.32 68.90 68.62 68.75 67.75 67.39 66.99
53.95 55.98 56.67 58.52 61.06 62.18 62.86 63.59 64.89 64.97 65.10 64.97 65.49 65.34 65.18 64.37 63.81 63.44 61.97 61.68 62.44 64.23 66.20 68.19 70.16 70.40 69.77 69.43 68.83 68.10 68.74 68.39 68.11
53.97 55.17 56.72 59.20 60.74 61.57 60.96 60.88 61.51 63.22 64.09 63.59 64.27 64.55 64.83 64.31 63.86 63.82 63.70 63.22 62.41 62.74 64.87 66.67 68.86 70.11 69.94 69.82 69.41 69.42 68.60 68.47 68.44
55.18 55.74 56.48 57.50 58.26 58.86 59.37 59.32 60.59 61.20 62.39 62.88 63.68 64.18 64.57 64.67 63.91 62.96 63.42 62.69 62.18 62.10 63.33 64.14 65.17 66.28 68.67 69.33 69.12 69.18 68.72 68.42 68.57
51.93 53.15 53.73 55.04 55.78 56.87 56.78 56.66 58.80 59.73 60.87 61.55 61.88 62.47 63.86 63.76 63.23 62.10 61.29 60.88 60.47 61.35 61.68 61.03 62.00 62.19 63.14 65.39 67.33 67.86 68.95 67.91 67.99
48.77 48.96 50.30 51.75 53.56 53.79 56.31 56.30 55.80 57.65 60.14 59.78 59.88 60.84 62.49 62.87 62.84 63.06 62.43 62.08 62.18 62.09 61.40 60.51 60.97 61.30 62.01 62.83 64.27 65.69 66.53 66.87 67.65
46.73 46.22 48.67 50.05 51.04 52.45 53.83 55.71 55.75 56.70 59.22 57.08 55.64 55.15 56.34 60.29 61.70 62.20 62.52 62.02 62.00 61.99 61.91 61.67 61.42 60.67 60.79 60.63 61.74 63.14 64.75 65.70 66.22
45.15 45.08 46.59 48.53 49.01 50.07 50.62 54.97 54.20 53.81 56.93 59.09 55.65 53.22 52.30 53.54 57.71 60.37 61.41 61.53 61.15 61.55 61.50 60.76 61.10 61.19 60.79 60.49 60.55 61.05 61.99 63.95 64.63
43.74 43.99 44.47 44.85 47.37 48.11 48.44 51.52 54.70 55.30 54.16 57.13 59.47 56.66 55.95 53.08 51.74 55.37 59.63 60.96 60.47 60.81 61.38 61.33 60.54 60.36 59.95 59.49 59.36 59.96 61.07 63.39 65.37
43.06 43.09 43.23 43.53 44.58 45.82 46.81 47.81 49.28 51.29 55.65 56.18 55.41 56.63 56.93 55.63 54.63 52.86 54.48 56.50 59.07 60.96 60.76 61.01 60.30 60.30 60.19 59.75 58.96 58.95 60.50 62.85 64.25

GFSFLT1_sfc_wetblb_129.txt.gz
Wetbulb
72.67 72.19 72.82 72.78 72.11 70.98 71.21 72.10 72.28 72.22 71.73 70.74 70.90 71.20 70.96 68.68 67.62 66.50 68.22 68.76 68.05 68.60 68.44 67.89 67.69 67.50 67.44 67.39 67.33 67.31 67.28 67.50 68.74
72.15 72.45 72.30 72.36 72.21 72.17 71.74 71.24 72.28 72.10 71.49 70.77 70.55 71.22 70.30 69.01 66.34 66.75 67.21 68.79 68.04 68.46 68.65 68.40 67.97 67.66 67.54 67.19 66.99 66.72 66.56 66.50 67.83
71.90 72.27 72.28 72.01 72.01 72.23 72.29 71.64 72.23 72.69 71.86 71.38 71.25 70.76 69.30 67.29 66.17 66.18 67.54 67.91 68.28 69.64 68.83 68.38 68.23 68.04 67.88 67.52 67.24 66.69 66.49 66.20 66.16
70.91 71.46 71.54 71.65 71.90 71.87 72.15 71.90 71.79 72.50 72.37 71.84 70.77 70.04 68.95 68.47 66.71 64.55 66.85 67.01 68.62 69.93 69.54 68.56 68.47 68.30 68.02 67.74 67.41 67.16 66.64 66.43 66.16
68.28 69.33 70.11 70.74 71.16 71.77 71.99 71.94 72.06 71.62 71.86 71.88 70.40 68.81 68.36 69.08 65.69 64.92 64.89 66.61 68.76 69.79 69.78 69.07 68.78 68.59 68.25 68.01 67.64 67.38 66.86 66.42 66.32
63.50 66.19 67.75 68.90 69.86 70.53 71.09 71.54 71.54 70.70 69.63 70.17 69.88 67.93 69.84 68.82 68.17 65.60 64.20 65.79 68.63 69.51 70.46 69.75 69.14 68.71 68.55 68.14 67.74 67.49 67.21 66.80 66.38
61.99 63.16 65.92 67.35 68.00 68.56 69.39 70.21 70.27 69.37 69.98 69.96 68.72 70.16 70.40 69.46 67.72 66.79 64.23 65.68 68.28 69.10 70.48 70.83 69.56 68.77 68.59 68.37 67.98 67.72 67.30 66.99 66.63
59.10 60.69 61.94 63.88 63.78 65.82 66.85 67.87 68.52 68.82 69.31 69.32 69.77 70.24 70.45 69.42 68.01 66.69 64.31 65.43 67.31 69.35 70.05 71.20 70.66 69.22 68.94 68.40 68.25 67.84 67.48 67.09 66.76
57.54 58.18 59.53 60.81 61.38 61.94 64.44 65.60 66.54 67.20 68.34 69.01 68.90 69.13 69.53 69.14 69.20 67.57 64.53 65.51 66.22 67.58 69.45 71.03 71.10 70.04 69.13 68.59 68.44 68.41 67.87 67.23 67.48
56.77 57.57 59.06 60.03 61.12 60.86 62.11 63.77 64.94 65.77 66.35 67.87 68.49 68.44 68.51 68.51 68.53 68.30 63.53 65.05 66.50 66.90 67.26 69.79 70.67 70.55 69.82 69.11 69.27 68.92 68.11 67.46 67.63
56.36 57.52 59.02 60.16 61.32 62.26 62.95 63.18 63.71 64.31 65.42 65.96 66.85 67.78 68.21 67.70 67.97 68.32 67.60 63.92 65.50 66.58 67.12 67.65 70.38 70.26 70.43 69.73 68.83 69.13 68.93 68.03 67.60
57.66 58.35 58.73 59.56 60.56 60.69 60.91 61.20 61.77 62.31 63.46 64.77 65.75 66.46 67.24 67.38 66.53 67.32 67.37 66.05 63.12 65.04 66.81 66.82 67.97 70.05 70.02 70.01 69.55 69.47 68.84 68.72 68.44
54.87 55.69 56.83 57.87 58.47 59.10 59.23 59.15 59.06 60.75 62.06 62.88 63.98 65.08 65.86 65.72 66.13 66.11 65.96 66.24 66.20 64.20 65.21 66.63 67.29 68.62 69.57 69.91 69.73 69.82 68.94 68.51 68.49
52.59 53.10 53.95 54.98 55.64 55.95 57.15 58.16 58.93 58.86 58.97 60.85 63.05 63.79 63.48 64.13 65.23 65.08 65.16 65.52 65.40 66.09 64.30 63.75 64.72 66.15 68.27 69.09 69.41 69.47 69.33 68.36 68.27
50.52 50.63 51.18 51.24 51.89 54.26 55.21 54.51 57.21 58.01 58.47 57.89 57.78 61.36 63.99 65.62 66.01 65.35 65.33 65.02 64.77 64.28 64.34 64.75 63.68 63.44 66.09 68.33 68.86 69.19 68.92 68.66 68.08
48.30 48.58 49.22 50.23 50.01 50.58 52.44 54.39 54.21 55.12 58.16 57.64 57.70 58.87 60.82 62.62 64.65 65.32 64.95 64.63 63.63 63.28 63.64 63.29 64.56 64.31 64.28 65.72 66.61 67.39 67.54 66.84 66.42
46.30 46.23 47.15 48.37 49.27 49.65 49.55 50.90 52.22 55.20 57.61 54.48 55.09 51.84 56.48 61.27 63.00 63.68 63.73 63.07 62.68 62.80 62.92 62.89 62.84 63.22 63.99 63.79 64.63 66.01 66.93 67.37 67.08
45.40 45.59 45.82 46.42 47.83 47.85 48.07 49.19 49.05 50.01 55.07 55.62 53.17 50.49 51.17 56.70 61.02 61.27 62.01 62.00 62.27 62.67 62.96 62.85 62.53 62.83 63.21 62.56 61.93 62.33 63.91 65.79 66.69
44.25 44.43 45.13 45.59 46.03 46.23 46.76 47.95 47.41 48.15 47.87 52.96 56.43 55.01 55.26 53.24 53.36 59.30 60.58 60.99 61.15 61.61 62.37 62.14 62.18 62.66 63.49 61.79 59.97 59.97 61.31 63.52 65.29
40.46 42.57 42.58 43.54 44.82 44.96 45.32 45.58 45.37 46.01 47.19 47.75 50.92 53.92 54.66 54.96 54.08 52.37 56.60 59.33 61.58 61.80 62.19 61.78 62.01 62.04 62.38 61.76 60.16 59.48 61.13 63.25 64.66

GFSFLT1_sfc_wetblb_135.txt.gz
Wetbulb
72.02 71.90 71.82 72.07 72.19 72.07 72.14 71.71 71.20 72.03 72.21 71.51 71.34 71.07 71.66 70.08 69.34 69.61 69.93 69.69 70.42 69.25 68.78 68.56 68.10 68.10 67.80 67.89 67.94 67.60 67.46 68.16 68.57
71.88 71.84 71.79 71.62 71.52 71.72 71.90 72.02 71.85 71.61 71.88 71.64 71.51 71.43 71.20 70.25 68.80 68.85 68.73 68.32 70.55 69.07 69.05 68.98 68.57 68.31 67.98 68.01 67.83 67.68 67.50 67.33 68.50
69.20 70.52 71.16 71.29 71.45 71.54 71.66 71.68 71.72 71.88 71.70 71.45 71.60 70.85 69.80 69.05 68.66 68.89 68.66 69.08 70.48 69.55 69.25 69.30 68.92 68.37 68.34 68.20 67.90 67.67 67.49 67.21 67.24
65.08 67.34 68.04 69.96 70.48 71.07 71.33 71.40 71.21 71.44 71.72 71.92 71.40 70.37 69.42 69.21 68.86 67.83 68.27 68.92 70.23 69.95 69.36 69.80 69.48 68.91 68.68 68.47 68.18 67.93 67.47 67.31 66.86
65.19 64.98 65.49 64.69 66.11 68.44 70.11 70.58 70.86 71.20 71.53 71.39 70.82 69.48 68.76 69.52 69.79 69.45 68.03 69.83 69.90 69.95 69.57 69.77 70.10 69.45 68.83 68.69 68.48 68.15 67.80 67.44 67.20
59.81 61.92 62.84 63.78 64.35 65.70 66.18 67.95 69.69 69.94 69.37 69.78 69.81 68.63 69.11 68.74 69.31 69.98 69.45 69.95 69.02 69.17 69.62 69.65 70.15 70.23 69.22 69.51 68.75 68.38 68.13 67.83 67.35
57.57 58.85 61.53 63.03 64.73 65.75 66.08 67.52 68.60 68.20 68.91 69.48 67.94 69.21 69.51 68.69 68.18 69.96 69.94 69.80 69.45 68.80 69.27 70.39 70.66 71.27 70.62 69.98 69.20 68.54 67.98 67.68 67.53
58.29 58.07 58.35 59.65 60.82 59.80 61.19 61.67 62.90 65.17 66.34 67.61 68.33 67.73 67.74 67.84 67.68 69.17 69.30 70.58 69.93 69.30 68.82 69.90 70.55 71.17 71.09 70.61 69.71 68.53 69.06 68.63 68.44
57.77 57.82 58.37 58.58 58.97 58.90 59.33 59.17 59.45 59.74 60.53 62.88 64.92 65.50 67.63 67.85 67.66 67.63 66.55 69.53 70.18 70.10 69.60 69.75 70.28 70.80 71.23 70.52 70.29 69.70 68.53 68.23 68.52
58.44 58.45 58.72 58.89 59.17 59.09 58.86 58.85 58.93 58.96 59.30 59.72 60.02 61.39 63.85 65.85 67.95 68.84 64.85 67.09 69.33 70.64 70.22 69.65 69.54 70.43 71.13 70.67 70.65 69.92 69.44 69.02 68.73
57.20 57.55 57.83 58.11 58.46 58.18 57.98 57.73 57.91 58.07 58.54 58.53 58.81 59.07 59.81 61.72 65.06 67.05 68.07 65.59 67.59 69.01 70.01 70.03 70.04 70.04 70.58 70.83 70.72 70.17 69.71 69.21 69.10
56.31 56.63 56.66 57.15 57.44 57.73 58.08 57.96 58.42 58.27 58.30 57.69 58.26 58.25 58.77 59.74 60.15 62.20 65.76 67.44 64.28 66.78 69.17 69.79 69.74 69.89 70.21 70.91 71.08 70.44 69.86 69.30 69.04
55.06 55.47 55.47 56.10 55.97 56.08 56.58 56.90 57.27 57.46 57.31 57.18 57.93 58.53 58.70 58.23 58.63 60.47 62.27 63.97 66.29 65.71 66.58 67.91 68.97 70.17 69.80 70.12 70.54 70.52 70.03 69.38 68.96
53.86 54.22 54.72 54.96 54.40 54.13 54.45 54.60 55.32 55.72 56.55 56.64 57.37 58.28 58.62 58.80 58.67 58.34 59.18 62.26 64.56 65.88 65.25 64.51 65.13 66.84 69.45 70.32 70.02 70.10 69.85 69.67 69.01
52.79 53.20 53.56 53.59 51.80 51.32 51.85 52.43 53.42 53.82 54.91 55.56 56.06 57.42 58.13 58.90 58.92 59.08 59.50 59.43 61.52 64.45 64.75 64.97 64.57 63.26 66.40 68.38 69.92 69.84 69.50 69.41 69.20
51.37 51.49 51.92 52.21 51.80 50.58 51.44 50.11 49.56 50.64 53.45 52.21 53.55 55.02 56.68 56.95 57.34 57.96 58.50 59.34 60.72 62.19 63.55 64.11 64.57 65.46 63.83 66.22 68.00 69.05 68.69 69.41 69.03
47.51 47.08 48.39 49.83 50.40 50.85 50.28 49.20 48.08 49.03 50.73 49.08 49.16 48.73 51.70 54.67 55.56 56.19 57.17 56.42 58.20 59.87 61.71 63.96 64.74 65.01 65.04 63.63 64.47 66.70 67.99 68.30 68.82
45.37 45.82 45.71 46.21 47.25 47.53 48.59 48.73 47.05 45.63 47.77 49.37 48.95 46.17 45.20 48.28 54.80 55.11 55.67 56.40 54.30 55.21 58.59 57.97 56.16 60.24 63.52 63.42 62.44 63.01 64.96 67.15 67.82
44.33 44.50 44.44 44.86 45.15 44.75 45.13 47.00 47.70 46.95 44.33 46.58 48.25 48.98 48.93 47.75 46.14 53.49 55.43 54.30 51.93 50.61 50.84 49.23 49.61 48.67 49.54 51.75 52.59 57.75 62.12 65.45 66.97
43.20 43.15 43.22 43.38 43.78 43.70 43.75 43.87 44.52 46.59 45.10 44.27 45.24 45.34 46.87 48.12 44.60 46.09 48.30 52.57 49.44 48.88 46.99 47.28 47.63 47.40 47.39 49.25 50.46 52.53 55.92 60.58 62.63

GFSFLT1_sfc_wetblb_138.txt.gz
Wetbulb
72.06 72.04 72.44 72.35 72.39 71.90 71.93 72.26 72.44 72.42 72.18 72.21 71.85 71.68 71.76 70.87 67.77 67.18 68.37 68.91 72.52 70.88 69.30 68.60 68.51 68.98 68.06 68.32 68.10 67.64 67.36 68.12 68.62
70.56 71.30 71.81 72.11 72.03 71.53 71.66 71.98 72.23 72.38 72.22 71.65 71.91 71.92 70.90 69.83 67.10 66.10 65.76 65.84 71.69 70.82 69.75 69.01 68.66 68.83 68.10 67.94 67.98 67.91 67.69 67.47 68.46
66.17 68.05 69.95 70.30 71.03 71.42 71.60 71.78 71.70 72.04 71.80 71.81 71.75 71.24 69.87 68.57 68.12 67.49 66.09 67.51 71.78 71.04 70.08 69.62 69.51 68.67 68.26 68.26 68.16 67.90 67.66 67.47 67.22
63.84 66.07 66.95 67.86 66.87 68.13 70.10 71.00 71.23 71.37 71.57 71.54 71.37 70.43 69.41 67.88 67.52 67.26 65.81 68.24 71.10 70.93 70.36 69.66 69.76 69.50 68.75 68.69 68.50 68.16 67.88 67.57 67.33
64.34 66.12 64.23 62.93 63.50 64.44 66.52 68.19 69.99 70.82 71.10 71.17 70.59 69.51 68.60 67.62 67.90 67.81 67.89 70.18 70.93 71.20 71.00 69.82 69.92 70.25 69.53 68.98 68.72 68.49 68.23 67.83 67.65
56.44 60.03 61.86 62.57 64.45 64.29 65.51 66.61 67.97 68.96 68.94 69.12 69.16 68.32 68.05 66.66 67.51 67.89 68.92 71.11 71.08 70.04 71.22 70.76 69.88 70.69 70.80 70.01 69.54 68.83 68.34 68.13 67.80
58.29 57.76 61.22 62.59 64.08 64.37 66.12 66.98 67.53 67.24 65.57 66.29 67.25 67.56 67.51 66.72 66.61 67.20 69.27 71.50 71.59 71.86 70.82 70.69 70.96 71.01 71.35 70.91 70.21 69.50 69.07 68.45 68.35
54.40 53.91 54.08 54.36 57.81 56.28 56.96 55.76 56.90 55.84 56.21 58.98 61.95 64.79 66.70 66.42 66.41 67.61 68.62 70.90 71.36 71.34 71.41 70.56 70.45 71.02 71.11 71.51 70.88 70.25 69.71 69.39 68.76
53.84 53.78 54.39 54.09 54.64 54.19 54.51 54.37 54.36 54.63 54.92 54.58 54.86 55.74 58.67 64.47 65.22 65.46 66.70 69.04 71.31 70.88 71.28 70.99 70.10 70.36 71.07 71.52 71.46 70.47 69.70 69.49 68.94
53.89 54.15 54.40 54.19 54.60 53.85 53.85 53.93 54.23 54.14 54.69 55.10 54.77 54.35 54.31 54.82 59.00 62.61 64.32 66.50 68.88 70.09 71.33 71.53 70.40 70.50 70.84 71.17 71.33 70.87 70.24 69.51 69.15
52.60 53.00 53.38 53.43 53.83 54.00 53.74 53.46 53.35 53.49 54.12 54.45 54.32 53.80 54.06 54.35 54.46 56.14 60.38 64.80 66.94 68.75 69.79 70.53 70.92 70.29 70.34 70.51 70.54 70.74 70.66 70.21 69.40
51.17 51.85 52.36 52.83 53.03 53.53 53.92 54.36 54.78 54.38 54.96 53.68 54.85 55.49 54.83 54.52 55.22 55.44 56.19 58.22 62.93 65.76 68.72 68.74 69.81 70.34 69.96 70.15 70.46 70.09 70.30 70.20 69.86
50.05 50.82 51.21 51.91 52.42 52.28 52.33 52.33 52.41 52.92 53.38 53.83 54.18 54.33 54.96 55.11 54.89 55.33 55.45 55.81 56.77 60.40 65.67 67.22 67.79 68.56 69.14 69.63 70.01 69.85 69.60 69.66 69.72
49.45 50.06 50.59 50.98 50.72 51.84 52.00 51.11 50.91 49.68 51.07 52.38 53.61 53.86 54.48 54.93 56.84 55.50 55.78 56.10 56.50 56.56 58.80 63.05 64.37 65.68 66.80 67.98 68.92 69.92 69.15 69.32 69.56
48.55 48.90 48.98 49.56 49.18 48.81 49.17 48.17 48.66 48.59 49.37 50.40 51.63 51.07 52.98 53.77 53.79 53.84 55.34 55.11 55.78 56.82 57.83 58.56 61.10 63.02 65.23 66.72 67.17 68.68 69.59 68.62 69.00
44.99 44.44 45.55 47.06 47.44 47.80 49.05 47.31 46.20 46.87 47.69 48.67 47.96 49.16 51.21 50.84 51.41 53.00 53.58 55.61 54.99 54.80 55.90 57.77 59.61 60.80 62.88 64.47 66.25 67.00 68.48 69.33 68.57
42.99 42.42 42.31 42.87 43.45 44.87 45.27 45.63 45.49 44.94 46.12 46.01 46.70 45.17 47.33 49.14 50.55 52.38 54.32 52.50 52.46 51.66 51.43 51.04 51.66 52.62 53.25 53.87 58.06 62.52 67.33 68.27 68.63
42.18 41.23 40.86 41.20 41.62 41.09 41.00 42.60 44.02 43.59 44.28 45.09 46.52 44.14 43.14 45.89 50.40 49.88 52.89 51.94 50.44 49.86 49.49 49.33 49.02 50.43 51.14 51.92 53.76 56.81 62.17 64.91 67.15
41.66 41.22 40.29 40.11 40.50 39.60 40.00 42.02 41.10 43.17 41.33 43.41 45.50 46.24 44.93 44.13 43.43 47.41 49.57 50.72 49.44 47.20 46.77 46.93 47.04 46.63 48.36 49.15 51.54 53.91 57.52 60.19 61.99
40.72 40.09 39.35 38.79 39.80 39.27 39.17 39.16 39.42 40.46 40.61 41.88 42.74 42.64 41.81 44.28 41.84 42.50 43.78 46.53 48.21 47.25 46.22 46.12 45.74 44.38 44.98 46.40 47.57 51.16 54.05 57.18 60.11